EW3067 Weather Reports


time (UTC)temp
F
wind
direction
speed
knots
gust
knots
rain 1hr
in
rain 24hr
in
rain mn
in
humidity
%
barometer
mb
20260906221259 99 130 3.5 7.8 0.00 0.00 0.00 41 1010.1
20260906221200 99 127 2.6 7.8 0.00 0.00 0.00 41 1010.1
20260906221100 99 129 3.5 7.8 0.00 0.00 0.00 41 1010.1
20260906221001 99 138 4.3 8.7 0.00 0.00 0.00 41 1010.1
20260906220859 99 152 4.3 8.7 0.00 0.00 0.00 41 1010.2
20260906220800 99 156 3.5 8.7 0.00 0.00 0.00 41 1010.2
20260906220700 99 145 3.5 8.7 0.00 0.00 0.00 41 1010.1
20260906220600 99 140 4.3 8.7 0.00 0.00 0.00 41 1010.1
20260906220400 99 138 4.3 8.7 0.00 0.00 0.00 41 1010.2
20260906220300 99 180 4.3 8.7 0.00 0.00 0.00 41 1010.1
20260906220200 99 159 4.3 8.7 0.00 0.00 0.00 40 1010.2
20260906220059 99 153 4.3 8.7 0.00 0.00 0.00 40 1010.2
20260906215958 99 119 3.5 8.7 0.00 0.00 0.00 40 1010.2
20260906215658 100 121 3.5 7.8 0.00 0.00 0.00 40 1010.2
20260906215559 100 127 1.7 7.8 0.00 0.00 0.00 40 1010.2
20260906215459 100 126 1.7 7.8 0.00 0.00 0.00 40 1010.2
20260906215358 100 147 2.6 7.8 0.00 0.00 0.00 39 1010.2
20260906215259 100 169 3.5 7.8 0.00 0.00 0.00 39 1010.3
20260906215159 100 137 4.3 7.8 0.00 0.00 0.00 39 1010.2
20260906215058 101 140 4.3 7.8 0.00 0.00 0.00 38 1010.3
20260906214958 101 146 5.2 7.8 0.00 0.00 0.00 39 1010.2
20260906214858 101 135 5.2 7.8 0.00 0.00 0.00 39 1010.3
20260906214759 101 130 6.1 8.7 0.00 0.00 0.00 39 1010.2
20260906214659 101 120 4.3 8.7 0.00 0.00 0.00 39 1010.2
20260906214604 101 102 3.5 8.7 0.00 0.00 0.00 39 1008.3
20260906214500 101 121 2.6 8.7 0.00 0.00 0.00 39 1010.2
20260906214359 101 97 1.7 8.7 0.00 0.00 0.00 40 1010.2
20260906214259 101 69 2.6 8.7 0.00 0.00 0.00 39 1010.2
20260906214158 101 136 4.3 8.7 0.00 0.00 0.00 39 1010.2
20260906214058 101 97 5.2 8.7 0.00 0.00 0.00 39 1010.3
20260906213959 101 127 5.2 8.7 0.00 0.00 0.00 40 1010.2
20260906213859 101 109 3.5 8.7 0.00 0.00 0.00 40 1010.3
20260906213758 100 154 2.6 8.7 0.00 0.00 0.00 40 1010.3
20260906213658 100 144 4.3 8.7 0.00 0.00 0.00 39 1010.3
20260906213558 100 127 4.3 10.4 0.00 0.00 0.00 39 1010.3
20260906213458 100 132 5.2 10.4 0.00 0.00 0.00 40 1010.2
20260906213258 100 106 4.3 10.4 0.00 0.00 0.00 40 1010.3
20260906213158 100 109 4.3 10.4 0.00 0.00 0.00 40 1010.4
20260906213059 100 123 4.3 10.4 0.00 0.00 0.00 39 1008.4
20260906212959 100 115 5.2 10.4 0.00 0.00 0.00 39 1010.3
20260906212858 100 144 4.3 10.4 0.00 0.00 0.00 39 1010.4
20260906212759 101 120 3.5 10.4 0.00 0.00 0.00 39 1010.2
20260906212659 101 171 3.5 10.4 0.00 0.00 0.00 39 1010.4
20260906212500 101 136 4.3 10.4 0.00 0.00 0.00 39 1010.4
20260906212358 101 119 2.6 9.6 0.00 0.00 0.00 39 1010.4
20260906212300 101 111 133.8 569.2 2.32 0.00 0.00 40
20260906212059 101 119 3.5 9.6 0.00 0.00 0.00 39 1010.4
20260906211959 101 119 4.3 9.6 0.00 0.00 0.00 39 1010.4
20260906211859 101 109 4.3 9.6 0.00 0.00 0.00 39 1010.4
20260906211758 101 130 5.2 9.6 0.00 0.00 0.00 39 1010.5
20260906211659 100 88 4.3 13.0 0.00 0.00 0.00 39 1010.5
20260906211558 101 134 4.3 13.0 0.00 0.00 0.00 39 1010.5
20260906211458 101 144 4.3 13.0 0.00 0.00 0.00 38 1010.5
20260906211359 101 174 5.2 13.0 0.00 0.00 0.00 39 1010.6
20260906211258 101 138 3.5 13.0 0.00 0.00 0.00 39 1010.5
20260906211200 101 156 1.7 13.0 0.00 0.00 0.00 39 1010.5
20260906211059 101 168 5.2 13.0 0.00 0.00 0.00 38 1010.5
20260906210959 101 117 5.2 13.0 0.00 0.00 0.00 38 1010.6
20260906210601 101 121 7.0 12.2 0.00 0.00 0.00 39 1010.7
20260906210458 101 113 7.0 12.2 0.00 0.00 0.00 38 1010.6
20260906210359 101 111 4.3 12.2 0.00 0.00 0.00 38 1010.7
20260906210200 101 192 1.7 7.0 0.00 0.00 0.00 38 1010.6
20260906210106 101 208 2.6 10.4 0.00 0.00 0.00 38 1008.8
20260906205959 101 196 3.5 10.4 0.00 0.00 0.00 39 1010.7
20260906205800 100 200 3.5 10.4 0.00 0.00 0.00 39 1010.7
20260906205700 100 125 3.5 10.4 0.00 0.00 0.00 38 1010.7
20260906205600 100 112 4.3 10.4 0.00 0.00 0.00 38 1010.8
20260906205459 101 121 5.2 10.4 0.00 0.00 0.00 38 1010.9
20260906205359 101 130 6.1 10.4 0.00 0.00 0.00 38 1010.9
20260906205258 100 133 6.1 10.4 0.00 0.00 0.00 39 1010.9
20260906205059 100 134 2.6 10.4 0.00 0.00 0.00 39 1010.9
20260906205000 100 150 2.6 9.6 0.00 0.00 0.00 40 1010.9
20260906204859 100 101 3.5 9.6 0.00 0.00 0.00 39 1010.9
20260906204658 99 128 3.5 9.6 0.00 0.00 0.00 40 1011.0
20260906204602 99 86 3.5 9.6 0.00 0.00 0.00 40 1009.0
20260906204500 99 117 4.3 9.6 0.00 0.00 0.00 40 1011.0
20260906204358 99 138 3.5 9.6 0.00 0.00 0.00 40 1011.0
20260906204258 99 151 2.6 7.0 0.00 0.00 0.00 40 1011.0
20260906204159 99 141 2.6 6.1 0.00 0.00 0.00 40 1011.0
20260906204059 99 148 2.6 6.1 0.00 0.00 0.00 40 1011.1
20260906203958 99 104 2.6 6.1 0.00 0.00 0.00 39 1011.1
20260906203859 100 116 1.7 6.1 0.00 0.00 0.00 39 1011.1
20260906203758 100 126 2.6 6.1 0.00 0.00 0.00 39 1011.1
20260906203659 100 123 1.7 7.0 0.00 0.00 0.00 39 1011.1
20260906203601 100 111 1.7 7.0 0.00 0.00 0.00 39 1011.1
20260906203458 100 80 2.6 8.7 0.00 0.00 0.00 39 1011.1
20260906203400 100 105 2.6 8.7 0.00 0.00 0.00 39 1011.1
20260906203059 100 107 1.7 11.3 0.00 0.00 0.00 40 1011.2
20260906202959 100 46 3.5 11.3 0.00 0.00 0.00 39 1011.2
20260906202858 100 96 4.3 11.3 0.00 0.00 0.00 39 1011.2
20260906202758 100 97 6.1 11.3 0.00 0.00 0.00 39 1011.3
20260906202659 100 120 6.1 11.3 0.00 0.00 0.00 40 1011.2
20260906202559 100 139 6.1 11.3 0.00 0.00 0.00 40 1011.2
20260906202459 100 134 7.0 11.3 0.00 0.00 0.00 40 1011.3
20260906202358 100 126 7.0 11.3 0.00 0.00 0.00 40 1011.3
20260906202258 100 154 5.2 10.4 0.00 0.00 0.00 40 1011.3
20260906202058 99 109 0.9 7.8 0.00 0.00 0.00 41 1011.3
20260906201858 99 83 0.9 9.6 0.00 0.00 0.00 40 1011.3
20260906201759 99 84 1.7 10.4 0.00 0.00 0.00 40 1011.3
20260906201658 99 165 2.6 10.4 0.00 0.00 0.00 40 1011.3
20260906201559 99 167 3.5 10.4 0.00 0.00 0.00 38 1009.4
20260906201458 99 151 4.3 10.4 0.00 0.00 0.00 38 1011.3
20260906201400 100 144 6.1 10.4 0.00 0.00 0.00 38 1011.3
20260906201259 100 113 7.0 10.4 0.00 0.00 0.00 38 1011.4
20260906201158 101 115 7.0 10.4 0.00 0.00 0.00 38 1011.3
20260906200859 101 135 4.3 9.6 0.00 0.00 0.00 38 1011.4
20260906200658 101 99 3.5 9.6 0.00 0.00 0.00 38 1011.4
20260906200558 101 98 4.3 9.6 0.00 0.00 0.00 38 1011.4
20260906200359 101 99 5.2 9.6 0.00 0.00 0.00 38 1011.4
20260906200259 101 89 5.2 9.6 0.00 0.00 0.00 38 1011.5
20260906200158 101 117 4.3 9.6 0.00 0.00 0.00 38 1011.4
20260906200058 101 123 5.2 9.6 0.00 0.00 0.00 39 1011.4
20260906195959 101 111 4.3 9.6 0.00 0.00 0.00 39 1011.4
20260906195858 101 118 3.5 7.8 0.00 0.00 0.00 40 1011.4
20260906195658 101 65 3.5 8.7 0.00 0.00 0.00 39 1011.4
20260906195559 101 55 2.6 8.7 0.00 0.00 0.00 40 1011.4
20260906195458 101 64 2.6 8.7 0.00 0.00 0.00 40 1011.5
20260906195358 101 39 3.5 8.7 0.00 0.00 0.00 39 1011.5
20260906195300 101 61 3.5 8.7 0.00 0.00 0.00 39 1011.5
20260906195158 101 69 4.3 8.7 0.00 0.00 0.00 39 1011.5
20260906195058 101 41 4.3 8.7 0.00 0.00 0.00 38 1011.6
20260906194859 101 71 3.5 7.8 0.00 0.00 0.00 40 1011.6
20260906194759 101 79 3.5 7.8 0.00 0.00 0.00 41 1011.6
20260906194659 100 103 3.5 11.3 0.00 0.00 0.00 40 1011.6
20260906194606 100 67 2.6 12.2 0.00 0.00 0.00 40 1009.7
20260906194559 100 67 2.6 12.2 0.00 0.00 0.00 40 1011.6
20260906194458 100 113 1.7 12.2 0.00 0.00 0.00 41 1011.6
20260906194359 100 105 1.7 12.2 0.00 0.00 0.00 39 1011.6
20260906194258 100 105 0.9 12.2 0.00 0.00 0.00 39 1011.7
20260906194159 100 72 2.6 12.2 0.00 0.00 0.00 40 1011.7
20260906194058 101 119 4.3 12.2 0.00 0.00 0.00 39 1011.7
20260906193959 101 118 7.8 12.2 0.00 0.00 0.00 40 1011.7
20260906193758 101 116 7.0 12.2 0.00 0.00 0.00 39 1011.7
20260906193557 101 142 5.2 11.3 0.00 0.00 0.00 40 1011.9
20260906193458 101 128 3.5 11.3 0.00 0.00 0.00 40 1011.8
20260906193358 101 74 2.6 10.4 0.00 0.00 0.00 39 1011.8
20260906193258 101 111 1.7 12.2 0.00 0.00 0.00 39 1011.8
20260906193158 101 118 3.5 12.2 0.00 0.00 0.00 39 1011.9
20260906193059 101 118 4.3 12.2 0.00 0.00 0.00 39 1010.0
20260906192959 102 125 4.3 12.2 0.00 0.00 0.00 39 1011.9
20260906192858 102 71 3.5 12.2 0.00 0.00 0.00 39 1011.9
20260906192758 102 57 3.5 13.0 0.00 0.00 0.00 39 1012.0
20260906192659 102 86 4.3 13.0 0.00 0.00 0.00 39 1011.9
20260906192458 102 140 7.0 13.0 0.00 0.00 0.00 38 1011.9
20260906192359 102 126 7.8 13.0 0.00 0.00 0.00 38 1011.9
20260906192300 102 117 5.2 13.0 0.00 0.00 0.00 38 1011.9
20260906192000 101 111 7.0 13.0 0.00 0.00 0.00 39 1011.9
20260906191858 101 100 7.0 12.2 0.00 0.00 0.00 39 1011.9
20260906191759 101 169 7.0 12.2 0.00 0.00 0.00 40 1012.0
20260906191657 101 151 7.0 12.2 0.00 0.00 0.00 40 1012.0
20260906191604 101 123 7.0 13.0 0.00 0.00 0.00 40 1010.2
20260906191559 101 123 7.8 13.0 0.00 0.00 0.00 40 1012.1
20260906191459 101 169 7.0 13.0 0.00 0.00 0.00 39 1012.1
20260906191358 101 126 7.8 13.0 0.00 0.00 0.00 40 1012.2
20260906191159 100 128 7.8 13.0 0.00 0.00 0.00 40 1012.3
20260906191058 100 134 6.1 13.0 0.00 0.00 0.00 41 1012.1
20260906190958 100 144 6.1 13.0 0.00 0.00 0.00 41 1012.1
20260906190858 100 126 6.1 13.0 0.00 0.00 0.00 42 1012.1
20260906190758 99 139 6.1 13.0 0.00 0.00 0.00 41 1012.2
20260906190700 99 107 4.3 13.0 0.00 0.00 0.00 42 1012.1
20260906190558 99 153 4.3 9.6 0.00 0.00 0.00 42 1012.1
20260906190357 99 122 4.3 9.6 0.00 0.00 0.00 40 1012.1
20260906190259 99 108 4.3 9.6 0.00 0.00 0.00 40 1012.1
20260906190158 100 122 4.3 9.6 0.00 0.00 0.00 40 1012.1
20260906190059 100 107 3.5 9.6 0.00 0.00 0.00 40 1012.1
20260906185959 100 86 1.7 9.6 0.00 0.00 0.00 40 1012.1
20260906185858 100 167 1.7 9.6 0.00 0.00 0.00 41 1012.2
20260906185759 100 164 3.5 9.6 0.00 0.00 0.00 41 1012.3
20260906185659 100 140 6.1 9.6 0.00 0.00 0.00 41 1012.3
20260906185559 100 82 6.1 9.6 0.00 0.00 0.00 41 1012.3
20260906185458 100 120 3.5 9.6 0.00 0.00 0.00 41 1012.2
20260906185259 99 99 0.9 9.6 0.00 0.00 0.00 41 1012.1
20260906185158 100 158 0.9 9.6 0.00 0.00 0.00 41 1012.1
20260906185058 100 112 1.7 11.3 0.00 0.00 0.00 41 1012.2
20260906184958 100 104 2.6 11.3 0.00 0.00 0.00 41 1012.2
20260906184758 100 104 3.5 11.3 0.00 0.00 0.00 41 1012.3
20260906184700 100 94 5.2 11.3 0.00 0.00 0.00 41 1012.3
20260906184600 100 85 4.3 11.3 0.00 0.00 0.00 42 1010.4
20260906184558 100 85 5.2 11.3 0.00 0.00 0.00 42 1012.3
20260906184358 100 84 7.0 11.3 0.00 0.00 0.00 42 1012.3
20260906184158 99 101 5.2 11.3 0.00 0.00 0.00 42 1012.4
20260906184058 99 119 2.6 7.0 0.00 0.00 0.00 42 1012.4
20260906183958 100 92 1.7 7.0 0.00 0.00 0.00 41 1012.4
20260906183858 100 116 2.6 7.0 0.00 0.00 0.00 41 1012.4
20260906183758 100 112 3.5 10.4 0.00 0.00 0.00 41 1012.4
20260906183600 100 140 1.7 10.4 0.00 0.00 0.00 41 1012.3
20260906183457 100 91 2.6 10.4 0.00 0.00 0.00 41 1012.4
20260906183359 101 115 2.6 10.4 0.00 0.00 0.00 40 1012.4
20260906183158 101 123 5.2 10.4 0.00 0.00 0.00 40 1012.5
20260906183109 101 146 6.1 10.4 0.00 0.00 0.00 40 1010.6
20260906183059 101 146 6.1 10.4 0.00 0.00 0.00 40 1012.5
20260906182958 101 90 6.1 10.4 0.00 0.00 0.00 41 1012.5
20260906182659 101 113 4.3 10.4 0.00 0.00 0.00 40 1012.5
20260906182558 101 90 3.5 10.4 0.00 0.00 0.00 41 1012.6
20260906182459 101 82 5.2 10.4 0.00 0.00 0.00 41 1012.6
20260906182259 100 103 6.1 10.4 0.00 0.00 0.00 41 1012.7
20260906182159 100 117 6.1 13.0 0.00 0.00 0.00 41 1012.7
20260906182100 100 142 4.3 13.0 0.00 0.00 0.00 43 1012.7
20260906181959 100 104 3.5 13.0 0.00 0.00 0.00 43 1012.7
20260906181859 100 66 2.6 13.0 0.00 0.00 0.00 43 1012.8
20260906181759 99 89 2.6 13.0 0.00 0.00 0.00 43 1012.8
20260906181659 99 73 3.5 13.0 0.00 0.00 0.00 43 1012.8
20260906181603 99 84 4.3 13.0 0.00 0.00 0.00 43 1010.9
20260906181559 99 84 5.2 13.0 0.00 0.00 0.00 43 1012.9
20260906181500 99 99 6.1 13.0 0.00 0.00 0.00 43 1012.9
20260906181359 99 111 6.1 13.0 0.00 0.00 0.00 44 1012.9
20260906181059 99 113 7.0 12.2 0.00 0.00 0.00 43 1012.9
20260906180958 99 144 6.1 12.2 0.00 0.00 0.00 42 1013.0
20260906180858 99 145 6.1 12.2 0.00 0.00 0.00 43 1012.9
20260906180758 99 119 6.1 11.3 0.00 0.00 0.00 43 1013.0
20260906180658 99 134 5.2 11.3 0.00 0.00 0.00 43 1013.0
20260906180459 99 148 2.6 11.3 0.00 0.00 0.00 42 1013.0
20260906180359 99 147 3.5 11.3 0.00 0.00 0.00 42 1013.0
20260906180258 99 159 6.1 11.3 0.00 0.00 0.00 42 1013.1
20260906180159 99 137 6.1 11.3 0.00 0.00 0.00 44 1013.2
20260906180120 98 144 4.3 11.3 0.00 0.00 0.00 44 1011.1
20260906175958 98 130 4.3 11.3 0.00 0.00 0.00 44 1013.0
20260906175858 98 130 3.5 11.3 0.00 0.00 0.00 44 1013.1
20260906175757 98 169 2.6 11.3 0.00 0.00 0.00 44 1013.1
20260906175657 98 124 4.3 11.3 0.00 0.00 0.00 45 1013.1
20260906175557 98 110 7.0 11.3 0.00 0.00 0.00 45 1013.1
20260906175457 98 136 7.8 11.3 0.00 0.00 0.00 44 1013.1
20260906175357 97 128 6.1 11.3 0.00 0.00 0.00 44 1013.2
20260906175157 97 155 2.6 11.3 0.00 0.00 0.00 45 1013.2
20260906175057 97 117 2.6 11.3 0.00 0.00 0.00 45 1013.2
20260906174958 98 114 3.5 11.3 0.00 0.00 0.00 44 1013.3
20260906174858 98 105 4.3 11.3 0.00 0.00 0.00 44 1013.3
20260906174757 98 113 4.3 11.3 0.00 0.00 0.00 45 1013.3
20260906174657 98 104 3.5 10.4 0.00 0.00 0.00 44 1013.3
20260906174619 98 107 4.3 10.4 0.00 0.00 0.00 43 1011.3
20260906174357 99 124 7.0 11.3 0.00 0.00 0.00 43 1013.2
20260906174258 99 142 5.2 11.3 0.00 0.00 0.00 44 1013.3
20260906174157 99 148 4.3 11.3 0.00 0.00 0.00 44 1013.2
20260906174057 99 74 3.5 11.3 0.00 0.00 0.00 45 1013.3
20260906173858 99 99 4.3 11.3 0.00 0.00 0.00 43 1013.3
20260906173757 99 119 6.1 11.3 0.00 0.00 0.00 43 1013.3
20260906173658 99 130 7.0 11.3 0.00 0.00 0.00 42 1013.3
20260906173558 99 118 5.2 11.3 0.00 0.00 0.00 43 1013.3
20260906173457 99 99 3.5 9.6 0.00 0.00 0.00 43 1013.3
20260906173357 99 117 3.5 9.6 0.00 0.00 0.00 43 1013.3
20260906173158 99 117 2.6 9.6 0.00 0.00 0.00 43 1013.3
20260906173058 99 121 3.5 9.6 0.00 0.00 0.00 43 1013.4
20260906172758 99 98 4.3 9.6 0.00 0.00 0.00 44 1013.4
20260906172658 99 98 6.1 9.6 0.00 0.00 0.00 43 1013.4
20260906172557 99 93 5.2 9.6 0.00 0.00 0.00 43 1013.4
20260906172357 98 116 2.6 9.6 0.00 0.00 0.00 44 1013.4
20260906172257 98 107 3.5 9.6 0.00 0.00 0.00 45 1013.4
20260906172157 98 82 3.5 9.6 0.00 0.00 0.00 46 1013.5
20260906172057 98 94 4.3 9.6 0.00 0.00 0.00 46 1013.5
20260906171858 98 98 4.3 9.6 0.00 0.00 0.00 45 1013.4
20260906171757 97 113 4.3 9.6 0.00 0.00 0.00 45 1013.4
20260906171657 97 140 4.3 9.6 0.00 0.00 0.00 45 1013.4
20260906171612 98 138 5.2 9.6 0.00 0.00 0.00 45 1011.5
20260906171557 98 138 5.2 9.6 0.00 0.00 0.00 45 1013.5
20260906171457 98 171 5.2 9.6 0.00 0.00 0.00 45 1013.5
20260906171358 98 180 6.1 9.6 0.00 0.00 0.00 45 1013.4
20260906171257 98 121 6.1 9.6 0.00 0.00 0.00 45 1013.5
20260906171157 98 116 5.2 9.6 0.00 0.00 0.00 45 1013.4
20260906171057 98 113 3.5 9.6 0.00 0.00 0.00 45 1013.5
20260906170858 98 117 4.3 9.6 0.00 0.00 0.00 44 1013.5
20260906170757 98 132 5.2 9.6 0.00 0.00 0.00 44 1013.6
20260906170657 98 111 5.2 9.6 0.00 0.00 0.00 44 1013.6
20260906170557 99 158 4.3 8.7 0.00 0.00 0.00 44 1013.6
20260906170357 99 118 2.6 7.8 0.00 0.00 0.00 43 1013.6
20260906170258 99 153 2.6 7.8 0.00 0.00 0.00 43 1013.6
20260906170158 99 59 1.7 7.8 0.00 0.00 0.00 43 1013.6
20260906170103 99 94 1.7 7.8 0.00 0.00 0.00 44 1011.7
20260906170058 99 94 1.7 7.8 0.00 0.00 0.00 44 1013.6
20260906170002 99 89 2.6 7.8 0.00 0.00 0.00 44 1013.6
20260906165858 99 94 3.5 7.8 0.00 0.00 0.00 45 1013.7
20260906165757 98 73 3.5 10.4 0.00 0.00 0.00 45 1013.6
20260906165658 98 105 2.6 10.4 0.00 0.00 0.00 45 1013.6
20260906165558 98 98 2.6 10.4 0.00 0.00 0.00 44 1013.7
20260906165458 98 63 2.6 10.4 0.00 0.00 0.00 44 1013.6
20260906165357 98 121 2.6 10.4 0.00 0.00 0.00 44 1013.6
20260906165257 98 105 3.5 10.4 0.00 0.00 0.00 45 1013.7
20260906165057 98 81 3.5 10.4 0.00 0.00 0.00 45 1013.7
20260906164957 98 81 4.3 10.4 0.00 0.00 0.00 45 1013.6
20260906164857 98 118 4.3 10.4 0.00 0.00 0.00 45 1013.7
20260906164758 98 111 6.1 10.4 0.00 0.00 0.00 45 1013.7
20260906164658 98 119 6.1 10.4 0.00 0.00 0.00 45 1013.7
20260906164557 98 131 4.3 8.7 0.00 0.00 0.00 44 1011.7
20260906164358 98 97 4.3 8.7 0.00 0.00 0.00 45 1013.7
20260906164257 98 99 3.5 9.6 0.00 0.00 0.00 45 1013.6
20260906164158 98 123 3.5 9.6 0.00 0.00 0.00 44 1013.7
20260906164058 98 122 3.5 9.6 0.00 0.00 0.00 44 1013.7
20260906163858 98 113 3.5 11.3 0.00 0.00 0.00 44 1013.8
20260906163758 98 97 3.5 11.3 0.00 0.00 0.00 44 1013.8
20260906163658 98 113 4.3 11.3 0.00 0.00 0.00 45 1013.8
20260906163457 98 98 3.5 11.3 0.00 0.00 0.00 45 1013.7
20260906163256 98 84 6.1 11.3 0.00 0.00 0.00 45 1013.6
20260906163159 98 67 6.1 11.3 0.00 0.00 0.00 44 1013.7
20260906163059 98 115 4.3 7.8 0.00 0.00 0.00 44 1011.8
20260906162957 98 117 3.5 7.8 0.00 0.00 0.00 45 1013.7
20260906162857 98 142 3.5 7.0 0.00 0.00 0.00 45 1013.7
20260906162758 97 109 2.6 7.0 0.00 0.00 0.00 45 1013.7
20260906162658 97 100 1.7 7.0 0.00 0.00 0.00 45 1013.7
20260906162558 97 82 1.7 9.6 0.00 0.00 0.00 45 1013.7
20260906162458 97 112 1.7 9.6 0.00 0.00 0.00 46 1013.7
20260906162358 97 101 2.6 9.6 0.00 0.00 0.00 46 1013.7
20260906162258 97 103 4.3 9.6 0.00 0.00 0.00 46 1013.7
20260906162159 97 106 4.3 9.6 0.00 0.00 0.00 46 1013.7
20260906162058 97 103 3.5 9.6 0.00 0.00 0.00 46 1013.7
20260906161958 97 103 4.3 9.6 0.00 0.00 0.00 47 1013.7
20260906161857 96 96 4.3 8.7 0.00 0.00 0.00 47 1013.6
20260906161758 96 148 3.5 8.7 0.00 0.00 0.00 47 1013.6
20260906161657 96 129 2.6 7.8 0.00 0.00 0.00 48 1013.6
20260906161621 96 96 0.9 7.8 0.00 0.00 0.00 48 1011.7
20260906161558 96 96 1.7 7.8 0.00 0.00 0.00 48 1013.6
20260906161457 96 100 1.7 7.8 0.00 0.00 0.00 48 1013.6
20260906161358 96 115 1.7 6.1 0.00 0.00 0.00 47 1013.7
20260906161157 96 74 1.7 6.1 0.00 0.00 0.00 48 1013.6
20260906160958 96 89 1.7 6.1 0.00 0.00 0.00 48 1013.6
20260906160858 96 80 2.6 6.1 0.00 0.00 0.00 47 1013.6
20260906160758 96 53 2.6 6.1 0.00 0.00 0.00 47 1013.7
20260906160658 96 104 1.7 6.1 0.00 0.00 0.00 47 1013.7
20260906160558 96 96 1.7 5.2 0.00 0.00 0.00 47 1013.7
20260906160458 95 66 1.7 5.2 0.00 0.00 0.00 48 1013.6
20260906160358 95 103 1.7 5.2 0.00 0.00 0.00 48 1013.6
20260906160258 95 96 1.7 6.1 0.00 0.00 0.00 49 1013.6
20260906160057 95 124 0.9 7.8 0.00 0.00 0.00 49 1011.7
20260906155958 95 111 1.7 7.8 0.00 0.00 0.00 49 1013.6
20260906155857 95 104 2.6 7.8 0.00 0.00 0.00 48 1013.6
20260906155757 95 136 2.6 7.8 0.00 0.00 0.00 48 1013.6
20260906155657 95 136 3.5 7.8 0.00 0.00 0.00 48 1013.6
20260906155558 95 168 4.3 7.8 0.00 0.00 0.00 48 1013.6
20260906155457 95 154 4.3 7.8 0.00 0.00 0.00 48 1013.6
20260906155357 95 118 4.3 7.8 0.00 0.00 0.00 48 1013.6
20260906155258 95 109 3.5 7.8 0.00 0.00 0.00 48 1013.6
20260906155158 95 135 2.6 7.8 0.00 0.00 0.00 48 1013.5
20260906155057 95 111 1.7 7.8 0.00 0.00 0.00 49 1013.6
20260906154959 94 94 0.9 7.8 0.00 0.00 0.00 50 1013.5
20260906154857 94 108 1.7 7.8 0.00 0.00 0.00 49 1013.5
20260906154758 94 92 1.7 7.8 0.00 0.00 0.00 49 1013.5
20260906154559 94 172 2.6 7.8 0.00 0.00 0.00 49 1011.7
20260906154557 94 172 2.6 7.8 0.00 0.00 0.00 49 1013.5
20260906154458 94 115 1.7 7.8 0.00 0.00 0.00 49 1013.6
20260906154158 94 42 1.7 7.8 0.00 0.00 0.00 50 1013.5
20260906154057 94 110 2.6 6.1 0.00 0.00 0.00 50 1013.4
20260906153858 94 46 2.6 6.1 0.00 0.00 0.00 49 1013.5
20260906153658 94 26 1.7 7.0 0.00 0.00 0.00 49 1013.5
20260906153558 94 114 2.6 7.0 0.00 0.00 0.00 49 1013.5
20260906153458 94 105 2.6 7.0 0.00 0.00 0.00 49 1013.4
20260906153358 94 128 2.6 5.2 0.00 0.00 0.00 50 1013.5
20260906153258 94 111 1.7 5.2 0.00 0.00 0.00 49 1013.4
20260906153111 94 70 1.7 3.5 0.00 0.00 0.00 50 1011.5
20260906153058 94 70 1.7 3.5 0.00 0.00 0.00 50 1013.4
20260906152858 93 75 0.9 5.2 0.00 0.00 0.00 51 1013.5
20260906152658 93 96 0.9 5.2 0.00 0.00 0.00 53 1013.4
20260906152559 93 98 0.9 5.2 0.00 0.00 0.00 53 1013.4
20260906152459 93 127 0.9 5.2 0.00 0.00 0.00 52 1013.5
20260906152358 93 120 1.7 5.2 0.00 0.00 0.00 52 1013.5
20260906152258 93 96 1.7 5.2 0.00 0.00 0.00 52 1013.5
20260906152158 92 96 1.7 5.2 0.00 0.00 0.00 54 1013.5
20260906152058 92 86 1.7 5.2 0.00 0.00 0.00 53 1013.5
20260906151958 92 131 1.7 5.2 0.00 0.00 0.00 53 1013.5
20260906151758 92 140 2.6 5.2 0.00 0.00 0.00 53 1013.5
20260906151658 92 153 1.7 5.2 0.00 0.00 0.00 54 1013.5
20260906151558 92 105 0.9 6.1 0.00 0.00 0.00 54 1013.5
20260906151458 92 72 0.9 6.1 0.00 0.00 0.00 54 1013.6
20260906151358 92 101 0.9 6.1 0.00 0.00 0.00 54 1013.5
20260906151258 92 130 1.7 6.1 0.00 0.00 0.00 54 1013.6
20260906151158 91 117 1.7 6.1 0.00 0.00 0.00 54 1013.5
20260906151058 91 138 0.9 6.1 0.00 0.00 0.00 56 1013.5
20260906150958 91 95 1.7 6.1 0.00 0.00 0.00 56 1013.5
20260906150859 91 80 1.7 6.1 0.00 0.00 0.00 56 1013.5
20260906150757 91 103 1.7 6.1 0.00 0.00 0.00 56 1013.5
20260906150658 90 87 1.7 4.3 0.00 0.00 0.00 57 1013.6
20260906150558 90 99 1.7 4.3 0.00 0.00 0.00 57 1013.5
20260906150458 90 92 2.6 4.3 0.00 0.00 0.00 57 1013.5
20260906150357 90 28 2.6 4.3 0.00 0.00 0.00 57 1013.5
20260906150259 90 28 1.7 4.3 0.00 0.00 0.00 57 1013.5
20260906150107 89 67 0.0 3.5 0.00 0.00 0.00 59 1011.6
20260906145958 89 5 0.0 3.5 0.00 0.00 0.00 58 1013.5
20260906145857 89 5 0.9 3.5 0.00 0.00 0.00 59 1013.5
20260906145758 89 20 0.9 3.5 0.00 0.00 0.00 59 1013.5
20260906145658 89 20 1.7 3.5 0.00 0.00 0.00 60 1013.5
20260906145557 89 19 0.9 3.5 0.00 0.00 0.00 60 1013.6
20260906145457 89 300 0.0 3.5 0.00 0.00 0.00 60 1013.6
20260906145257 89 302 0.0 3.5 0.00 0.00 0.00 59 1013.6
20260906145159 89 304 0.9 3.5 0.00 0.00 0.00 59 1013.6
20260906145058 89 22 0.9 3.5 0.00 0.00 0.00 59 1013.6
20260906144958 89 22 0.9 3.5 0.00 0.00 0.00 59 1013.5
20260906144857 89 32 0.9 3.5 0.00 0.00 0.00 60 1013.5
20260906144758 89 22 0.9 2.6 0.00 0.00 0.00 60 1013.6
20260906144659 89 22 0.9 2.6 0.00 0.00 0.00 60 1013.6
20260906144558 89 23 0.9 2.6 0.00 0.00 0.00 62 1013.5
20260906144458 89 17 0.9 2.6 0.00 0.00 0.00 62 1013.6
20260906144358 89 21 1.7 2.6 0.00 0.00 0.00 62 1013.5
20260906144258 88 23 1.7 2.6 0.00 0.00 0.00 62 1013.5
20260906144058 88 39 0.9 2.6 0.00 0.00 0.00 62 1013.6
20260906143958 88 336 0.0 1.7 0.00 0.00 0.00 62 1013.5
20260906143858 88 360 0.0 1.7 0.00 0.00 0.00 63 1013.6
20260906143757 88 360 0.0 1.7 0.00 0.00 0.00 63 1013.6
20260906143558 88 355 0.0 1.7 0.00 0.00 0.00 64 1013.6
20260906143458 87 78 0.0 1.7 0.00 0.00 0.00 66 1013.6
20260906143358 87 82 0.0 1.7 0.00 0.00 0.00 66 1013.6
20260906143258 87 82 0.0 1.7 0.00 0.00 0.00 65 1013.6
20260906143158 87 82 0.0 1.7 0.00 0.00 0.00 65 1013.6
20260906143058 87 82 0.0 1.7 0.00 0.00 0.00 65 1013.5
20260906142858 87 82 0.0 0.9 0.00 0.00 0.00 66 1013.5
20260906142758 87 82 0.0 0.9 0.00 0.00 0.00 66 1013.6
20260906142558 86 82 0.0 1.7 0.00 0.00 0.00 67 1013.6
20260906142458 86 82 0.0 1.7 0.00 0.00 0.00 69 1013.6
20260906142258 86 82 0.0 1.7 0.00 0.00 0.00 69 1013.6
20260906142157 86 82 0.0 1.7 0.00 0.00 0.00 69 1013.6
20260906142058 86 82 0.9 1.7 0.00 0.00 0.00 68 1013.6
20260906141957 86 82 0.9 1.7 0.00 0.00 0.00 69 1013.6
20260906141858 86 81 0.9 1.7 0.00 0.00 0.00 69 1013.6
20260906141758 85 81 0.9 1.7 0.00 0.00 0.00 69 1013.6
20260906141659 85 74 0.0 1.7 0.00 0.00 0.00 70 1013.6
20260906141619 85 74 0.0 1.7 0.00 0.00 0.00 70 1011.8
20260906141558 85 74 0.0 1.7 0.00 0.00 0.00 70 1013.6
20260906141458 85 74 0.0 1.7 0.00 0.00 0.00 72 1013.6
20260906141358 85 74 0.9 1.7 0.00 0.00 0.00 72 1013.7
20260906141257 85 74 0.9 1.7 0.00 0.00 0.00 72 1013.6
20260906141158 85 76 0.9 1.7 0.00 0.00 0.00 72 1013.6
20260906141058 84 76 0.0 1.7 0.00 0.00 0.00 72 1013.6
20260906140958 84 76 0.9 1.7 0.00 0.00 0.00 72 1013.6
20260906140858 84 76 0.9 1.7 0.00 0.00 0.00 73 1013.6
20260906140757 84 86 0.9 1.7 0.00 0.00 0.00 74 1013.6
20260906140558 83 90 0.0 1.7 0.00 0.00 0.00 76 1013.6
20260906140458 83 90 0.0 1.7 0.00 0.00 0.00 76 1013.6
20260906140358 83 91 0.0 1.7 0.00 0.00 0.00 77 1013.6
20260906140258 82 91 0.0 1.7 0.00 0.00 0.00 77 1013.6
20260906140157 82 91 0.0 1.7 0.00 0.00 0.00 77 1013.6
20260906140058 82 91 0.0 1.7 0.00 0.00 0.00 78 1011.8
20260906135959 82 91 0.9 1.7 0.00 0.00 0.00 78 1013.6
20260906135757 82 90 0.9 1.7 0.00 0.00 0.00 78 1013.6
20260906135658 81 91 0.9 1.7 0.00 0.00 0.00 78 1013.6
20260906135558 81 91 0.9 1.7 0.00 0.00 0.00 79 1013.6
20260906135456 81 92 0.0 1.7 0.00 0.00 0.00 80 1013.7
20260906135357 81 150 0.0 1.7 0.00 0.00 0.00 81 1013.7
20260906135258 81 156 0.0 1.7 0.00 0.00 0.00 81 1013.7
20260906135158 81 156 0.0 1.7 0.00 0.00 0.00 82 1013.7
20260906135058 81 156 0.0 1.7 0.00 0.00 0.00 82 1013.7
20260906134958 80 156 0.0 1.7 0.00 0.00 0.00 82 1013.7
20260906134858 80 157 0.0 1.7 0.00 0.00 0.00 82 1013.8
20260906134757 80 157 0.0 1.7 0.00 0.00 0.00 82 1013.7
20260906134659 80 157 0.0 1.7 0.00 0.00 0.00 82 1013.7
20260906134556 80 159 0.0 1.7 0.00 0.00 0.00 82 1011.8
20260906134457 80 160 0.9 1.7 0.00 0.00 0.00 82 1013.7
20260906134357 80 161 0.9 1.7 0.00 0.00 0.00 83 1013.7
20260906134257 80 161 0.9 1.7 0.00 0.00 0.00 84 1013.7
20260906134057 79 162 0.0 1.7 0.00 0.00 0.00 84 1013.7
20260906133957 79 175 0.0 0.0 0.00 0.00 0.00 85 1013.8
20260906133757 79 176 0.0 0.0 0.00 0.00 0.00 85 1013.7
20260906133658 79 176 0.0 0.0 0.00 0.00 0.00 85 1013.7
20260906133558 78 176 0.0 0.0 0.00 0.00 0.00 85 1013.8
20260906133457 78 177 0.0 0.0 0.00 0.00 0.00 86 1013.7
20260906133358 78 177 0.0 0.0 0.00 0.00 0.00 86 1013.7
20260906133257 78 178 0.0 0.0 0.00 0.00 0.00 87 1013.7
20260906133158 78 179 0.0 0.0 0.00 0.00 0.00 87 1013.6
20260906133106 78 179 0.0 0.0 0.00 0.00 0.00 87 1011.8
20260906133057 78 179 0.0 0.0 0.00 0.00 0.00 87 1013.7
20260906132957 78 179 0.0 0.0 0.00 0.00 0.00 88 1013.7
20260906132757 77 179 0.0 0.0 0.00 0.00 0.00 88 1013.7
20260906132657 77 179 0.0 0.0 0.00 0.00 0.00 88 1013.6
20260906132558 77 179 0.0 0.0 0.00 0.00 0.00 88 1013.6
20260906132457 77 179 0.0 0.9 0.00 0.00 0.00 89 1013.6
20260906132358 77 179 0.0 1.7 0.00 0.00 0.00 89 1013.6
20260906132258 77 179 0.0 1.7 0.00 0.00 0.00 89 1013.6
20260906132157 77 179 0.0 1.7 0.00 0.00 0.00 89 1013.6
20260906132058 76 179 0.0 1.7 0.00 0.00 0.00 89 1013.6
20260906131957 76 180 0.0 1.7 0.00 0.00 0.00 90 1013.6
20260906131857 76 180 0.0 1.7 0.00 0.00 0.00 90 1013.6
20260906131757 76 180 0.0 1.7 0.00 0.00 0.00 90 1013.6
20260906131657 76 180 0.9 1.7 0.00 0.00 0.00 90 1013.6
20260906131607 76 180 0.0 1.7 0.00 0.00 0.00 91 1011.8
20260906131558 76 180 0.9 1.7 0.00 0.00 0.00 91 1013.6
20260906131457 76 180 0.0 1.7 0.00 0.00 0.00 91 1013.6
20260906131257 75 185 0.0 1.7 0.00 0.00 0.00 91 1013.6
20260906131157 75 187 0.0 1.7 0.00 0.00 0.00 91 1013.6
20260906131057 75 187 0.0 1.7 0.00 0.00 0.00 92 1013.6
20260906130957 75 187 0.0 1.7 0.00 0.00 0.00 92 1013.6
20260906130858 75 188 0.0 0.9 0.00 0.00 0.00 92 1013.6
20260906130758 75 188 0.0 0.9 0.00 0.00 0.00 92 1013.6
20260906130656 75 188 0.0 0.9 0.00 0.00 0.00 92 1013.6
20260906130557 75 188 0.0 0.9 0.00 0.00 0.00 92 1013.6
20260906130457 75 188 0.0 0.9 0.00 0.00 0.00 92 1013.6
20260906130357 74 188 0.0 0.9 0.00 0.00 0.00 92 1013.7
20260906130258 74 188 0.0 0.9 0.00 0.00 0.00 92 1013.7
20260906130157 74 188 0.0 0.0 0.00 0.00 0.00 92 1013.6
20260906130057 74 188 0.0 0.0 0.00 0.00 0.00 92 1013.6
20260906125557 74 188 0.0 0.0 0.00 0.00 0.00 92 1013.6
20260906125457 74 188 0.0 0.0 0.00 0.00 0.00 92 1013.6
20260906125357 74 188 0.0 0.0 0.00 0.00 0.00 92 1013.6
20260906125259 74 188 0.0 0.0 0.00 0.00 0.00 92 1013.6
20260906125157 74 196 0.0 0.0 0.00 0.00 0.00 91 1013.5
20260906125058 74 195 0.0 0.0 0.00 0.00 0.00 91 1013.6
20260906124958 73 153 0.0 0.0 0.00 0.00 0.00 91 1013.5
20260906124857 73 138 0.0 0.0 0.00 0.00 0.00 91 1013.5
20260906124757 73 138 0.0 0.0 0.00 0.00 0.00 91 1013.5
20260906124657 73 138 0.0 0.0 0.00 0.00 0.00 91 1013.6
20260906124557 73 138 0.0 0.0 0.00 0.00 0.00 90 1013.5
20260906124457 73 138 0.0 0.0 0.00 0.00 0.00 90 1013.6
20260906124358 73 138 0.0 0.0 0.00 0.00 0.00 90 1013.6
20260906124058 73 138 0.0 0.0 0.00 0.00 0.00 90 1013.5
20260906123958 73 138 0.0 0.0 0.00 0.00 0.00 90 1013.5
20260906123857 73 138 0.0 0.0 0.00 0.00 0.00 90 1013.5
20260906123757 73 138 0.0 0.0 0.00 0.00 0.00 90 1013.5
20260906123659 73 138 0.0 0.0 0.00 0.00 0.00 90 1013.5
20260906123557 73 138 0.0 0.0 0.00 0.00 0.00 90 1013.4
20260906123457 73 138 0.0 0.0 0.00 0.00 0.00 90 1013.4
20260906123357 73 138 0.0 0.0 0.00 0.00 0.00 89 1013.4
20260906123258 73 138 0.0 0.0 0.00 0.00 0.00 89 1013.4
20260906123158 73 138 0.0 0.0 0.00 0.00 0.00 89 1013.4
20260906123106 72 138 0.0 0.0 0.00 0.00 0.00 89 1011.5
20260906123057 72 138 0.0 0.0 0.00 0.00 0.00 89 1013.4
20260906122858 72 138 0.0 0.0 0.00 0.00 0.00 88 1013.4
20260906122757 72 138 0.0 0.0 0.00 0.00 0.00 88 1013.3
20260906122658 72 138 0.0 0.0 0.00 0.00 0.00 88 1013.3
20260906122557 73 138 0.0 0.0 0.00 0.00 0.00 88 1013.4
20260906122458 73 138 0.0 0.0 0.00 0.00 0.00 87 1013.4
20260906122257 73 138 0.0 0.0 0.00 0.00 0.00 88 1013.3
20260906122159 73 138 0.0 0.0 0.00 0.00 0.00 91 1013.3
20260906121959 73 138 0.0 0.0 0.00 0.00 0.00 91 1013.3
20260906121857 73 138 0.0 0.0 0.00 0.00 0.00 91 1013.2
20260906121758 73 138 0.0 0.0 0.00 0.00 0.00 91 1013.2
20260906121604 73 138 0.0 0.0 0.00 0.00 0.00 91 1011.3
20260906121458 73 138 0.0 0.0 0.00 0.00 0.00 91 1013.2
20260906121357 73 138 0.0 0.0 0.00 0.00 0.00 91 1013.2
20260906121258 73 138 0.0 0.0 0.00 0.00 0.00 91 1013.2
20260906121159 73 138 0.0 0.0 0.00 0.00 0.00 91 1013.2
20260906121057 73 138 0.0 0.0 0.00 0.00 0.00 91 1013.1
20260906120957 73 138 0.0 0.0 0.00 0.00 0.00 91 1013.2
20260906120858 73 138 0.0 0.0 0.00 0.00 0.00 91 1013.2
20260906120657 73 138 0.0 0.0 0.00 0.00 0.00 90 1013.1
20260906120558 73 138 0.0 0.0 0.00 0.00 0.00 90 1013.2
20260906120457 73 138 0.0 0.0 0.00 0.00 0.00 90 1013.1
20260906120359 73 138 0.0 0.0 0.00 0.00 0.00 90 1013.2
20260906120257 73 138 0.0 0.0 0.00 0.00 0.00 90 1013.2
20260906120157 73 138 0.0 0.0 0.00 0.00 0.00 90 1013.2
20260906120104 73 138 0.0 0.0 0.00 0.00 0.00 90 1011.3
20260906120058 73 138 0.0 0.0 0.00 0.00 0.00 90 1013.2
20260906115957 73 138 0.0 0.0 0.00 0.00 0.00 90 1013.2
20260906115756 73 138 0.0 0.0 0.00 0.00 0.00 90 1013.2
20260906115658 73 138 0.0 0.0 0.00 0.00 0.00 90 1013.2
20260906115556 73 138 0.0 0.0 0.00 0.00 0.00 90 1013.1
20260906115457 73 138 0.0 0.0 0.00 0.00 0.00 90 1013.1
20260906115256 73 138 0.0 0.0 0.00 0.00 0.00 90 1013.0
20260906115057 73 138 0.0 0.0 0.00 0.00 0.00 90 1013.0
20260906114956 73 138 0.0 0.0 0.00 0.00 0.00 90 1013.0
20260906114857 73 138 0.0 0.0 0.00 0.00 0.00 90 1013.0
20260906114756 73 138 0.0 0.0 0.00 0.00 0.00 90 1013.0
20260906114656 73 138 0.0 0.0 0.00 0.00 0.00 90 1013.0
20260906114558 73 138 0.0 0.0 0.00 0.00 0.00 90 1011.1
20260906114556 73 138 0.0 0.0 0.00 0.00 0.00 90 1013.0
20260906114456 73 138 0.0 0.0 0.00 0.00 0.00 90 1013.0
20260906114357 73 138 0.0 0.0 0.00 0.00 0.00 90 1013.0
20260906114256 73 138 0.0 0.0 0.00 0.00 0.00 90 1013.0
20260906114157 73 138 0.0 0.0 0.00 0.00 0.00 89 1013.0
20260906114056 73 138 0.0 0.0 0.00 0.00 0.00 89 1013.0
20260906113957 73 138 0.0 0.0 0.00 0.00 0.00 89 1013.0
20260906113857 73 138 0.0 0.0 0.00 0.00 0.00 88 1013.0
20260906113657 73 138 0.0 0.0 0.00 0.00 0.00 88 1013.0
20260906113557 73 138 0.0 0.0 0.00 0.00 0.00 88 1013.0
20260906113456 73 138 0.0 0.0 0.00 0.00 0.00 88 1013.0
20260906113357 73 138 0.0 0.0 0.00 0.00 0.00 88 1013.1
20260906113256 73 138 0.0 0.0 0.00 0.00 0.00 89 1013.0
20260906113156 73 138 0.0 0.0 0.00 0.00 0.00 89 1013.0
20260906113057 73 138 0.0 0.0 0.00 0.00 0.00 89 1013.1
20260906112957 73 138 0.0 0.0 0.00 0.00 0.00 89 1013.0
20260906112857 73 138 0.0 0.0 0.00 0.00 0.00 89 1013.0
20260906112557 73 138 0.0 0.0 0.00 0.00 0.00 89 1012.9
20260906112356 73 138 0.0 0.0 0.00 0.00 0.00 88 1012.9
20260906112257 73 138 0.0 0.0 0.00 0.00 0.00 88 1012.9
20260906112058 73 138 0.0 0.0 0.00 0.00 0.00 89 1012.9
20260906111957 74 138 0.0 0.0 0.00 0.00 0.00 89 1012.9
20260906111756 74 138 0.0 0.0 0.00 0.00 0.00 89 1012.9
20260906111656 74 138 0.0 0.0 0.00 0.00 0.00 89 1012.9
20260906111557 74 138 0.0 0.0 0.00 0.00 0.00 89 1012.9
20260906111456 74 138 0.0 0.0 0.00 0.00 0.00 89 1012.9
20260906111357 74 138 0.0 0.0 0.00 0.00 0.00 89 1012.9
20260906111257 74 138 0.0 0.0 0.00 0.00 0.00 89 1012.8
20260906111156 74 138 0.0 0.0 0.00 0.00 0.00 88 1012.8
20260906111057 74 138 0.0 0.0 0.00 0.00 0.00 88 1012.7
20260906110856 74 138 0.0 0.0 0.00 0.00 0.00 88 1012.7
20260906110759 74 138 0.0 0.0 0.00 0.00 0.00 88 1012.7
20260906110657 74 138 0.0 0.0 0.00 0.00 0.00 88 1012.6
20260906110556 74 138 0.0 0.0 0.00 0.00 0.00 88 1012.6
20260906110457 74 138 0.0 0.0 0.00 0.00 0.00 88 1012.6
20260906110358 74 138 0.0 0.0 0.00 0.00 0.00 88 1012.6
20260906110257 74 138 0.0 0.0 0.00 0.00 0.00 88 1012.5
20260906110056 74 138 0.0 0.0 0.00 0.00 0.00 87 1010.7
20260906105959 74 138 0.0 0.0 0.00 0.00 0.00 87 1012.5
20260906105856 74 138 0.0 0.0 0.00 0.00 0.00 87 1012.5
20260906105558 74 138 0.0 0.0 0.00 0.00 0.00 87 1012.5
20260906105457 74 138 0.0 0.0 0.00 0.00 0.00 87 1012.5
20260906105358 74 138 0.0 0.0 0.00 0.00 0.00 87 1012.5
20260906105258 74 138 0.0 0.0 0.00 0.00 0.00 87 1012.5
20260906105157 74 138 0.0 0.0 0.00 0.00 0.00 87 1012.5
20260906105057 74 138 0.0 0.0 0.00 0.00 0.00 87 1012.5
20260906104958 74 138 0.0 0.0 0.00 0.00 0.00 87 1012.5
20260906104858 74 138 0.0 0.0 0.00 0.00 0.00 87 1012.5
20260906104758 74 138 0.0 0.0 0.00 0.00 0.00 87 1012.5
20260906104658 74 138 0.0 0.0 0.00 0.00 0.00 87 1012.4
20260906104557 74 138 0.0 0.0 0.00 0.00 0.00 87 1012.4
20260906104358 74 138 0.0 0.0 0.00 0.00 0.00 87 1012.4
20260906104256 74 138 0.0 0.0 0.00 0.00 0.00 87 1012.4
20260906104156 74 138 0.0 0.0 0.00 0.00 0.00 87 1012.4
20260906104056 74 138 0.0 0.0 0.00 0.00 0.00 87 1012.4
20260906103956 74 138 0.0 0.0 0.00 0.00 0.00 87 1012.4
20260906103856 74 138 0.0 0.0 0.00 0.00 0.00 87 1012.4
20260906103756 74 138 0.0 0.0 0.00 0.00 0.00 87 1012.4
20260906103656 74 138 0.0 0.0 0.00 0.00 0.00 87 1012.4
20260906103557 74 138 0.0 0.0 0.00 0.00 0.00 87 1012.5
20260906103357 74 138 0.0 0.0 0.00 0.00 0.00 87 1012.4
20260906103256 74 138 0.0 0.0 0.00 0.00 0.00 87 1012.3
20260906103156 74 138 0.0 0.0 0.00 0.00 0.00 87 1012.3
20260906103056 74 138 0.0 0.0 0.00 0.00 0.00 87 1010.5
20260906102956 74 138 0.0 0.0 0.00 0.00 0.00 87 1012.3
20260906102856 74 138 0.0 0.0 0.00 0.00 0.00 87 1012.3
20260906102756 74 138 0.0 0.0 0.00 0.00 0.00 87 1012.3
20260906102556 74 138 0.0 0.9 0.00 0.00 0.00 87 1012.3
20260906102457 74 138 0.0 1.7 0.00 0.00 0.00 87 1012.3
20260906102357 74 138 0.0 1.7 0.00 0.00 0.00 87 1012.3
20260906102257 74 138 0.0 1.7 0.00 0.00 0.00 87 1012.3
20260906101956 74 138 0.0 1.7 0.00 0.00 0.00 87 1012.2
20260906101856 74 138 0.0 1.7 0.00 0.00 0.00 87 1012.3
20260906101600 74 138 0.0 1.7 0.00 0.00 0.00 87 1010.4
20260906101557 74 138 0.0 1.7 0.00 0.00 0.00 87 1012.2
20260906101457 74 138 0.0 1.7 0.00 0.00 0.00 87 1012.3
20260906101356 74 138 0.0 1.7 0.00 0.00 0.00 86 1012.3
20260906101257 74 138 0.0 1.7 0.00 0.00 0.00 86 1012.2
20260906101157 74 138 0.0 1.7 0.00 0.00 0.00 86 1012.3
20260906101056 74 138 0.0 1.7 0.00 0.00 0.00 86 1012.2
20260906100857 74 138 0.0 1.7 0.00 0.00 0.00 86 1012.2
20260906100756 74 138 0.0 1.7 0.00 0.00 0.00 86 1012.3
20260906100657 74 138 0.0 0.9 0.00 0.00 0.00 86 1012.3
20260906100556 74 138 0.0 0.9 0.00 0.00 0.00 86 1012.2
20260906100356 74 138 0.0 0.9 0.00 0.00 0.00 86 1012.2
20260906100257 74 138 0.0 0.9 0.00 0.00 0.00 86 1012.2
20260906100157 75 138 0.0 0.9 0.00 0.00 0.00 86 1012.2
20260906100057 75 138 0.0 0.0 0.00 0.00 0.00 86 1010.4
20260906095957 75 138 0.0 0.0 0.00 0.00 0.00 86 1012.2
20260906095857 75 138 0.0 0.0 0.00 0.00 0.00 86 1012.3
20260906095757 75 138 0.0 0.0 0.00 0.00 0.00 86 1012.2
20260906095556 75 138 0.0 0.0 0.00 0.00 0.00 86 1012.2
20260906095457 75 138 0.0 0.0 0.00 0.00 0.00 86 1012.2
20260906095357 75 138 0.0 0.0 0.00 0.00 0.00 86 1012.1
20260906095256 75 138 0.0 0.0 0.00 0.00 0.00 86 1012.1
20260906095156 75 138 0.0 0.0 0.00 0.00 0.00 86 1012.1
20260906095056 75 138 0.0 0.0 0.00 0.00 0.00 86 1012.1
20260906094956 75 138 0.0 0.0 0.00 0.00 0.00 86 1012.1
20260906094858 75 138 0.0 0.0 0.00 0.00 0.00 86 1012.1
20260906094756 75 138 0.0 0.0 0.00 0.00 0.00 86 1012.1
20260906094656 75 138 0.0 0.0 0.00 0.00 0.00 86 1012.1
20260906094602 75 138 0.0 0.0 0.00 0.00 0.00 86 1010.3
20260906094556 75 138 0.0 0.0 0.00 0.00 0.00 86 1012.1
20260906094456 75 138 0.0 0.0 0.00 0.00 0.00 86 1012.1
20260906094356 75 138 0.0 0.0 0.00 0.00 0.00 86 1012.1
20260906094256 75 138 0.0 0.0 0.00 0.00 0.00 86 1012.1
20260906094057 75 138 0.0 0.0 0.00 0.00 0.00 86 1012.1
20260906093956 75 138 0.0 0.0 0.00 0.00 0.00 86 1012.0
20260906093856 75 138 0.0 0.0 0.00 0.00 0.00 86 1012.0
20260906093756 75 138 0.0 0.0 0.00 0.00 0.00 86 1012.0
20260906093557 75 138 0.0 0.0 0.00 0.00 0.00 86 1012.0
20260906093456 75 138 0.0 0.0 0.00 0.00 0.00 86 1012.0
20260906093356 75 138 0.0 0.0 0.00 0.00 0.00 86 1012.0
20260906093256 75 138 0.0 0.0 0.00 0.00 0.00 86 1012.0
20260906093156 75 138 0.0 0.0 0.00 0.00 0.00 86 1012.0
20260906093056 75 138 0.0 0.0 0.00 0.00 0.00 86 1010.3
20260906092958 75 138 0.0 0.0 0.00 0.00 0.00 86 1012.1
20260906092859 75 138 0.0 0.0 0.00 0.00 0.00 85 1012.1
20260906092756 75 138 0.0 0.0 0.00 0.00 0.00 85 1012.1
20260906092656 75 138 0.0 0.0 0.00 0.00 0.00 85 1012.1
20260906092557 75 138 0.0 0.0 0.00 0.00 0.00 85 1012.1
20260906092456 75 138 0.0 0.0 0.00 0.00 0.00 85 1012.1
20260906092357 75 138 0.0 0.0 0.00 0.00 0.00 85 1012.1
20260906092157 75 138 0.0 0.0 0.00 0.00 0.00 85 1012.0
20260906091958 75 138 0.0 0.0 0.00 0.00 0.00 85 1012.1
20260906091856 75 138 0.0 0.0 0.00 0.00 0.00 85 1012.1
20260906091756 75 138 0.0 0.0 0.00 0.00 0.00 85 1012.0
20260906091656 75 138 0.0 0.0 0.00 0.00 0.00 85 1012.0
20260906091558 75 138 0.0 0.0 0.00 0.00 0.00 85 1012.1
20260906091556 75 138 0.0 0.0 0.00 0.00 0.00 85 1010.3
20260906091457 75 138 0.0 0.0 0.00 0.00 0.00 85 1012.1
20260906091356 75 138 0.0 0.0 0.00 0.00 0.00 85 1012.1
20260906091257 75 138 0.0 0.0 0.00 0.00 0.00 85 1012.1
20260906091057 75 138 0.0 0.0 0.00 0.00 0.00 84 1012.0
20260906090956 75 138 0.0 0.0 0.00 0.00 0.00 84 1012.0
20260906090857 75 138 0.0 0.0 0.00 0.00 0.00 84 1012.1
20260906090757 75 138 0.0 0.0 0.00 0.00 0.00 84 1012.1
20260906090656 75 138 0.0 0.0 0.00 0.00 0.00 84 1012.1
20260906090557 75 138 0.0 0.0 0.00 0.00 0.00 84 1012.1
20260906090458 75 138 0.0 0.0 0.00 0.00 0.00 84 1012.1
20260906090257 75 138 0.0 0.0 0.00 0.00 0.00 84 1012.1
20260906090057 75 138 0.0 0.0 0.00 0.00 0.00 84 1010.2
20260906085957 75 138 0.0 0.0 0.00 0.00 0.00 84 1012.1
20260906085656 75 138 0.0 0.0 0.00 0.00 0.00 84 1012.0
20260906085556 75 138 0.0 0.0 0.00 0.00 0.00 84 1011.9
20260906085456 75 138 0.0 0.0 0.00 0.00 0.00 84 1011.9
20260906085356 75 138 0.0 0.0 0.00 0.00 0.00 84 1011.9
20260906085258 75 138 0.0 0.0 0.00 0.00 0.00 84 1011.8
20260906085157 75 138 0.0 0.0 0.00 0.00 0.00 84 1011.8
20260906085056 75 138 0.0 0.0 0.00 0.00 0.00 84 1011.8
20260906084957 75 138 0.0 0.0 0.00 0.00 0.00 84 1011.8
20260906084856 75 138 0.0 0.0 0.00 0.00 0.00 84 1011.9
20260906084756 76 138 0.0 0.0 0.00 0.00 0.00 84 1011.8
20260906084656 76 138 0.0 0.0 0.00 0.00 0.00 83 1011.8
20260906084558 76 138 0.0 0.0 0.00 0.00 0.00 83 1010.0
20260906084456 76 138 0.0 0.0 0.00 0.00 0.00 84 1011.8
20260906084159 76 138 0.0 0.0 0.00 0.00 0.00 84 1011.7
20260906084057 76 138 0.0 0.0 0.00 0.00 0.00 84 1011.7
20260906083955 76 138 0.0 0.0 0.00 0.00 0.00 83 1011.7
20260906083857 76 138 0.0 0.0 0.00 0.00 0.00 83 1011.8
20260906083557 76 138 0.0 0.0 0.00 0.00 0.00 83 1011.7
20260906083457 76 138 0.0 0.0 0.00 0.00 0.00 83 1011.8
20260906083358 76 138 0.0 0.0 0.00 0.00 0.00 82 1011.7
20260906083256 76 138 0.0 0.0 0.00 0.00 0.00 82 1011.7
20260906083156 76 138 0.0 0.0 0.00 0.00 0.00 82 1011.7
20260906083103 76 138 0.0 0.0 0.00 0.00 0.00 82 1009.8
20260906083057 76 138 0.0 0.0 0.00 0.00 0.00 82 1011.7
20260906082957 76 138 0.0 0.0 0.00 0.00 0.00 82 1011.7
20260906082857 76 138 0.0 0.0 0.00 0.00 0.00 82 1011.7
20260906082658 76 138 0.0 0.0 0.00 0.00 0.00 81 1011.7
20260906082556 76 138 0.0 0.0 0.00 0.00 0.00 81 1011.7
20260906082457 76 138 0.0 0.0 0.00 0.00 0.00 81 1011.6
20260906082356 76 138 0.0 0.0 0.00 0.00 0.00 81 1011.7
20260906082257 76 138 0.0 0.0 0.00 0.00 0.00 81 1011.7
20260906082156 77 138 0.0 0.0 0.00 0.00 0.00 80 1011.6
20260906082058 77 138 0.0 0.0 0.00 0.00 0.00 80 1011.7
20260906081856 77 138 0.0 0.0 0.00 0.00 0.00 81 1011.7
20260906081757 77 138 0.0 0.0 0.00 0.00 0.00 81 1011.7
20260906081656 77 138 0.0 0.0 0.00 0.00 0.00 81 1011.7
20260906081556 77 138 0.0 0.0 0.00 0.00 0.00 81 1011.7
20260906081356 77 138 0.0 0.0 0.00 0.00 0.00 81 1011.7
20260906081256 77 138 0.0 0.0 0.00 0.00 0.00 81 1011.7
20260906081156 77 138 0.0 0.0 0.00 0.00 0.00 81 1011.7
20260906080956 77 138 0.0 0.0 0.00 0.00 0.00 81 1011.7
20260906080756 77 138 0.0 0.0 0.00 0.00 0.00 81 1011.7
20260906080657 77 138 0.0 0.0 0.00 0.00 0.00 81 1011.7
20260906080556 77 138 0.0 0.0 0.00 0.00 0.00 81 1011.7
20260906080456 77 138 0.0 0.0 0.00 0.00 0.00 81 1011.7
20260906080356 77 138 0.0 0.0 0.00 0.00 0.00 81 1011.7
20260906080256 77 138 0.0 0.0 0.00 0.00 0.00 81 1011.7
20260906080157 77 138 0.0 0.0 0.00 0.00 0.00 81 1011.7
20260906080056 77 138 0.0 0.0 0.00 0.00 0.00 81 1009.9
20260906075855 77 138 0.0 0.0 0.00 0.00 0.00 81 1011.7
20260906075756 77 138 0.0 0.0 0.00 0.00 0.00 81 1011.7
20260906075655 77 138 0.0 0.0 0.00 0.00 0.00 81 1011.7
20260906075556 77 138 0.0 0.0 0.00 0.00 0.00 81 1011.7
20260906075455 77 138 0.0 0.0 0.00 0.00 0.00 81 1011.7
20260906075356 77 138 0.0 0.9 0.00 0.00 0.00 81 1011.7
20260906075255 77 138 0.0 0.9 0.00 0.00 0.00 80 1011.7
20260906075155 77 138 0.0 0.9 0.00 0.00 0.00 80 1011.7
20260906075056 77 138 0.0 0.9 0.00 0.00 0.00 80 1011.7
20260906074855 77 138 0.0 0.9 0.00 0.00 0.00 80 1011.6
20260906074755 77 138 0.0 0.9 0.00 0.00 0.00 80 1011.6
20260906074655 77 138 0.0 0.9 0.00 0.00 0.00 80 1011.6
20260906074555 77 138 0.0 0.9 0.00 0.00 0.00 80 1011.6
20260906074455 77 138 0.0 0.9 0.00 0.00 0.00 80 1011.7
20260906074356 77 138 0.0 0.9 0.00 0.00 0.00 80 1011.7
20260906074255 77 138 0.0 0.9 0.00 0.00 0.00 80 1011.7
20260906074155 77 138 0.0 0.9 0.00 0.00 0.00 80 1011.6
20260906074055 77 138 0.0 0.0 0.00 0.00 0.00 80 1011.7
20260906073857 77 138 0.0 0.0 0.00 0.00 0.00 80 1011.6
20260906073755 78 138 0.0 0.0 0.00 0.00 0.00 80 1011.7
20260906073655 78 138 0.0 0.0 0.00 0.00 0.00 80 1011.7
20260906073556 78 138 0.0 0.0 0.00 0.00 0.00 80 1011.7
20260906073455 78 138 0.0 0.0 0.00 0.00 0.00 80 1011.7
20260906073355 78 138 0.0 0.0 0.00 0.00 0.00 80 1011.7
20260906073255 78 138 0.0 0.9 0.00 0.00 0.00 80 1011.7
20260906073055 78 138 0.0 0.9 0.00 0.00 0.00 80 1011.7
20260906072955 78 138 0.0 0.9 0.00 0.00 0.00 80 1011.8
20260906072855 78 138 0.0 0.9 0.00 0.00 0.00 80 1011.8
20260906072755 78 138 0.0 1.7 0.00 0.00 0.00 80 1011.8
20260906072656 78 138 0.0 1.7 0.00 0.00 0.00 80 1011.8
20260906072555 78 138 0.0 1.7 0.00 0.00 0.00 80 1011.8
20260906072355 78 138 0.0 1.7 0.00 0.00 0.00 80 1011.8
20260906072155 78 138 0.0 1.7 0.00 0.00 0.00 80 1011.9
20260906072055 78 138 0.0 1.7 0.00 0.00 0.00 80 1011.9
20260906071956 78 138 0.0 1.7 0.00 0.00 0.00 80 1011.9
20260906071757 78 137 0.0 1.7 0.00 0.00 0.00 80 1011.9
20260906071554 78 137 0.0 1.7 0.00 0.00 0.00 80 1010.1
20260906071256 78 137 0.0 3.5 0.00 0.00 0.00 80 1011.9
20260906071155 78 137 0.0 3.5 0.00 0.00 0.00 80 1011.9
20260906071056 78 137 0.9 3.5 0.00 0.00 0.00 80 1011.9
20260906070954 78 136 0.9 3.5 0.00 0.00 0.00 80 1011.9
20260906070858 78 136 0.9 3.5 0.00 0.00 0.00 80 1011.9
20260906070755 78 137 0.9 3.5 0.00 0.00 0.00 79 1011.9
20260906070656 78 136 0.9 3.5 0.00 0.00 0.00 79 1011.9
20260906070555 78 140 0.9 1.7 0.00 0.00 0.00 79 1011.9
20260906070355 78 137 0.0 1.7 0.00 0.00 0.00 79 1011.9
20260906070257 78 136 0.0 1.7 0.00 0.00 0.00 79 1011.9
20260906070155 78 136 0.0 1.7 0.00 0.00 0.00 79 1011.9
20260906070055 78 137 0.0 1.7 0.00 0.00 0.00 79 1011.9
20260906065958 78 137 0.0 1.7 0.00 0.00 0.00 79 1012.0
20260906065857 78 136 0.0 1.7 0.00 0.00 0.00 79 1012.0
20260906065757 78 136 0.0 1.7 0.00 0.00 0.00 78 1012.0
20260906065557 78 136 0.0 1.7 0.00 0.00 0.00 78 1012.0
20260906065456 78 136 0.0 1.7 0.00 0.00 0.00 78 1012.0
20260906065356 78 136 0.0 1.7 0.00 0.00 0.00 78 1012.0
20260906065256 78 136 0.0 1.7 0.00 0.00 0.00 78 1012.0
20260906065157 78 136 0.0 1.7 0.00 0.00 0.00 78 1012.1
20260906065057 78 136 0.9 1.7 0.00 0.00 0.00 78 1012.1
20260906064956 78 136 1.7 1.7 0.00 0.00 0.00 78 1012.1
20260906064857 78 136 1.7 1.7 0.00 0.00 0.00 77 1012.1
20260906064656 78 136 0.9 1.7 0.00 0.00 0.00 77 1012.1
20260906064556 78 136 0.0 1.7 0.00 0.00 0.00 78 1010.2
20260906064456 78 136 0.0 0.0 0.00 0.00 0.00 78 1012.0
20260906064357 78 136 0.0 0.0 0.00 0.00 0.00 78 1012.0
20260906064255 78 136 0.0 0.0 0.00 0.00 0.00 78 1012.0
20260906064156 78 136 0.0 0.0 0.00 0.00 0.00 78 1011.9
20260906064056 78 136 0.0 0.0 0.00 0.00 0.00 78 1012.0
20260906063956 78 136 0.0 0.0 0.00 0.00 0.00 78 1012.0
20260906063756 78 136 0.0 0.0 0.00 0.00 0.00 78 1012.1
20260906063457 78 136 0.0 0.0 0.00 0.00 0.00 78 1012.0
20260906063257 78 136 0.0 0.0 0.00 0.00 0.00 77 1012.0
20260906063156 78 136 0.0 0.0 0.00 0.00 0.00 78 1012.0
20260906063057 78 136 0.0 0.0 0.00 0.00 0.00 78 1012.0
20260906062956 78 136 0.0 0.9 0.00 0.00 0.00 78 1012.0
20260906062856 78 136 0.0 0.9 0.00 0.00 0.00 78 1012.0
20260906062757 78 136 0.0 0.9 0.00 0.00 0.00 78 1012.0
20260906062656 78 136 0.0 0.9 0.00 0.00 0.00 78 1012.0
20260906062557 78 136 0.0 1.7 0.00 0.00 0.00 77 1012.1
20260906062456 78 136 0.0 1.7 0.00 0.00 0.00 77 1012.0
20260906062257 78 136 0.0 1.7 0.00 0.00 0.00 78 1012.1
20260906061956 78 136 0.0 2.6 0.00 0.00 0.00 77 1012.1
20260906061856 78 136 0.9 2.6 0.00 0.00 0.00 77 1012.1
20260906061757 78 136 0.9 2.6 0.00 0.00 0.00 77 1012.0
20260906061656 78 136 0.9 2.6 0.00 0.00 0.00 77 1012.0
20260906061558 78 136 0.0 2.6 0.00 0.00 0.00 77 1010.2
20260906061457 78 136 0.9 2.6 0.00 0.00 0.00 77 1012.0
20260906061358 78 136 0.9 2.6 0.00 0.00 0.00 77 1012.0
20260906061258 79 136 0.9 2.6 0.00 0.00 0.00 76 1011.9
20260906061157 79 137 0.9 2.6 0.00 0.00 0.00 76 1011.9
20260906061057 79 138 0.9 1.7 0.00 0.00 0.00 76 1012.0
20260906060957 79 138 0.9 0.9 0.00 0.00 0.00 76 1011.9
20260906060757 79 138 0.0 0.9 0.00 0.00 0.00 75 1011.9
20260906060657 79 138 0.0 0.9 0.00 0.00 0.00 75 1011.9
20260906060556 79 138 0.0 1.7 0.00 0.00 0.00 75 1011.9
20260906060357 79 138 0.0 1.7 0.00 0.00 0.00 75 1011.8
20260906060157 79 138 0.0 1.7 0.00 0.00 0.00 75 1011.8
20260906060132 79 138 0.0 1.7 0.00 0.00 0.00 75 1009.9
20260906060057 79 138 0.0 1.7 0.00 0.00 0.00 75 1011.8
20260906060002 79 138 0.0 1.7 0.00 0.00 0.00 75 1011.8
20260906055800 80 138 0.0 1.7 0.00 0.00 0.00 74 1011.7
20260906055701 80 138 0.0 0.9 0.00 0.00 0.00 74 1011.7
20260906055600 80 138 0.0 0.9 0.00 0.00 0.00 74 1011.7
20260906055500 80 138 0.0 0.9 0.00 0.00 0.00 74 1011.8
20260906055401 80 138 0.0 0.9 0.00 0.00 0.00 74 1011.8
20260906055300 80 138 0.0 0.9 0.00 0.00 0.00 74 1011.8
20260906055200 80 138 0.0 0.9 0.00 0.00 0.00 74 1011.8
20260906055100 80 138 0.0 0.0 0.00 0.00 0.00 74 1011.8
20260906055001 80 138 0.0 0.0 0.00 0.00 0.00 74 1011.8
20260906054701 80 138 0.0 0.0 0.00 0.00 0.00 74 1011.8
20260906054612 80 138 0.0 0.0 0.00 0.00 0.00 74 1009.9
20260906054602 80 138 0.0 0.0 0.00 0.00 0.00 74 1011.7
20260906054501 80 138 0.0 0.0 0.00 0.00 0.00 74 1011.8
20260906054401 80 138 0.0 0.0 0.00 0.00 0.00 74 1011.8
20260906054303 80 138 0.0 1.7 0.00 0.00 0.00 74 1011.8
20260906054202 80 138 0.0 1.7 0.00 0.00 0.00 74 1011.9
20260906054100 80 138 0.0 1.7 0.00 0.00 0.00 74 1011.9
20260906054001 80 138 0.0 1.7 0.00 0.00 0.00 74 1011.9
20260906053901 80 138 0.0 1.7 0.00 0.00 0.00 74 1012.0
20260906053801 80 138 0.0 1.7 0.00 0.00 0.00 73 1012.0
20260906053600 80 138 0.0 1.7 0.00 0.00 0.00 73 1012.1
20260906053500 80 138 0.0 1.7 0.00 0.00 0.00 73 1012.1
20260906053400 80 138 0.0 0.0 0.00 0.00 0.00 73 1012.0
20260906053300 80 138 0.0 0.0 0.00 0.00 0.00 73 1012.0
20260906053200 80 138 0.0 0.0 0.00 0.00 0.00 73 1012.0
20260906053101 80 138 0.0 0.0 0.00 0.00 0.00 73 1012.0
20260906053000 80 138 0.0 0.0 0.00 0.00 0.00 73 1012.1
20260906052901 80 138 0.0 0.0 0.00 0.00 0.00 73 1012.1
20260906052800 80 138 0.0 0.0 0.00 0.00 0.00 73 1012.1
20260906052702 80 138 0.0 1.7 0.00 0.00 0.00 73 1012.1
20260906052600 80 138 0.0 1.7 0.00 0.00 0.00 73 1012.1
20260906052501 80 138 0.0 1.7 0.00 0.00 0.00 73 1012.1
20260906052300 80 138 0.0 1.7 0.00 0.00 0.00 73 1012.1
20260906052200 80 138 0.0 1.7 0.00 0.00 0.00 73 1012.1
20260906052000 81 138 0.0 1.7 0.00 0.00 0.00 72 1012.2
20260906051801 81 138 0.0 1.7 0.00 0.00 0.00 72 1012.2
20260906051701 81 138 0.0 1.7 0.00 0.00 0.00 72 1012.2
20260906051601 81 138 0.0 1.7 0.00 0.00 0.00 72 1012.2
20260906051501 81 137 0.0 1.7 0.00 0.00 0.00 72 1012.2
20260906051400 81 137 0.0 1.7 0.00 0.00 0.00 72 1012.1
20260906051202 81 137 0.0 1.7 0.00 0.00 0.00 71 1012.1
20260906051000 81 137 0.0 0.9 0.00 0.00 0.00 71 1012.1
20260906050901 81 136 0.0 0.9 0.00 0.00 0.00 71 1012.2
20260906050800 81 136 0.0 0.0 0.00 0.00 0.00 71 1012.2
20260906050701 81 136 0.0 0.0 0.00 0.00 0.00 71 1012.2
20260906050501 81 136 0.0 0.0 0.00 0.00 0.00 71 1012.1
20260906050401 81 136 0.0 1.7 0.00 0.00 0.00 71 1012.1
20260906050201 81 136 0.0 1.7 0.00 0.00 0.00 71 1012.1
20260906050100 81 136 0.0 1.7 0.00 0.00 0.00 71 1010.2
20260906050000 81 136 0.0 1.7 0.00 0.00 0.00 71 1012.1
20260906045900 81 136 0.0 1.7 0.00 0.00 0.00 70 1012.1
20260906045800 81 136 0.0 1.7 0.00 0.00 0.00 70 1012.1
20260906045701 81 136 0.0 1.7 0.00 0.00 0.00 70 1012.1
20260906045600 81 136 0.0 1.7 0.00 0.00 0.00 70 1012.1
20260906045500 81 136 0.0 1.7 0.00 0.00 0.00 70 1012.1
20260906045300 81 136 0.0 1.7 0.00 0.00 0.00 70 1012.1
20260906045200 81 136 0.0 1.7 0.00 0.00 0.00 70 1012.1
20260906045100 81 136 0.0 1.7 0.00 0.00 0.00 70 1012.1
20260906044900 82 136 0.0 0.0 0.00 0.00 0.00 70 1012.1
20260906044800 82 136 0.0 1.7 0.00 0.00 0.00 70 1012.1
20260906044700 82 136 0.0 1.7 0.00 0.00 0.00 69 1012.1
20260906044601 82 136 0.0 1.7 0.00 0.00 0.00 69 1012.1
20260906044500 82 136 0.0 1.7 0.00 0.00 0.00 69 1012.1
20260906044400 82 136 0.0 1.7 0.00 0.00 0.00 69 1012.1
20260906044300 82 136 0.0 1.7 0.00 0.00 0.00 69 1012.1
20260906044201 82 136 0.0 0.9 0.00 0.00 0.00 69 1012.1
20260906044102 82 136 0.0 0.9 0.00 0.00 0.00 69 1012.1
20260906043900 82 136 0.0 0.9 0.00 0.00 0.00 69 1012.1
20260906043800 82 136 0.0 0.9 0.00 0.00 0.00 69 1012.1
20260906043700 82 136 0.0 0.9 0.00 0.00 0.00 69 1012.1
20260906043600 82 136 0.0 0.9 0.00 0.00 0.00 69 1012.1
20260906043500 82 136 0.0 1.7 0.00 0.00 0.00 69 1012.1
20260906043400 82 136 0.0 1.7 0.00 0.00 0.00 68 1012.1
20260906043300 82 136 0.0 1.7 0.00 0.00 0.00 68 1012.1
20260906043200 82 136 0.0 1.7 0.00 0.00 0.00 68 1012.1
20260906043101 82 136 0.0 1.7 0.00 0.00 0.00 68 1012.1
20260906042900 82 136 0.0 1.7 0.00 0.00 0.00 68 1012.1
20260906042759 82 136 0.0 1.7 0.00 0.00 0.00 68 1012.0
20260906042701 82 136 0.0 1.7 0.00 0.00 0.00 68 1012.1
20260906042500 82 136 0.9 1.7 0.00 0.00 0.00 68 1012.1
20260906042400 82 136 0.0 1.7 0.00 0.00 0.00 68 1012.0
20260906042300 82 136 0.0 1.7 0.00 0.00 0.00 68 1012.0
20260906042201 82 136 0.0 1.7 0.00 0.00 0.00 68 1012.0
20260906042100 82 136 0.9 1.7 0.00 0.00 0.00 68 1011.9
20260906042000 83 136 0.9 2.6 0.00 0.00 0.00 68 1011.9
20260906041900 83 136 0.9 2.6 0.00 0.00 0.00 68 1012.0
20260906041601 83 136 0.9 2.6 0.00 0.00 0.00 67 1012.0
20260906041459 83 136 0.9 2.6 0.00 0.00 0.00 67 1012.0
20260906041400 83 136 0.9 2.6 0.00 0.00 0.00 67 1012.0
20260906041300 83 136 0.9 2.6 0.00 0.00 0.00 67 1011.9
20260906041200 83 128 0.9 2.6 0.00 0.00 0.00 67 1011.9
20260906041101 83 128 0.9 2.6 0.00 0.00 0.00 67 1011.9
20260906041000 83 128 0.9 2.6 0.00 0.00 0.00 66 1011.9
20260906040900 83 125 0.9 2.6 0.00 0.00 0.00 66 1012.0
20260906040802 83 125 0.9 2.6 0.00 0.00 0.00 66 1012.0
20260906040700 83 125 0.9 2.6 0.00 0.00 0.00 66 1011.9
20260906040600 83 134 0.9 2.6 0.00 0.00 0.00 66 1012.0
20260906040500 83 134 1.7 2.6 0.00 0.00 0.00 66 1011.9
20260906040401 83 134 1.7 2.6 0.00 0.00 0.00 65 1012.0
20260906040300 83 135 0.9 2.6 0.00 0.00 0.00 65 1011.9
20260906040201 84 135 0.9 2.6 0.00 0.00 0.00 65 1011.9
20260906040101 84 136 0.9 2.6 0.00 0.00 0.00 65 1011.9
20260906040001 84 136 0.9 2.6 0.00 0.00 0.00 65 1011.9
20260906035900 84 136 0.9 2.6 0.00 0.00 0.00 65 1011.9
20260906035800 84 138 0.9 2.6 0.00 0.00 0.00 65 1011.9
20260906035700 84 138 1.7 4.3 0.00 0.00 0.00 65 1011.9
20260906035601 84 138 1.7 4.3 0.00 0.00 0.00 65 1011.9
20260906035501 84 142 0.9 4.3 0.00 0.00 0.00 65 1011.9
20260906035402 84 142 0.9 4.3 0.00 0.00 0.00 65 1011.9
20260906035200 84 144 0.9 4.3 0.00 0.00 0.00 65 1011.9
20260906035000 84 146 0.9 4.3 0.00 0.00 0.00 64 1011.9
20260906034901 84 145 1.7 4.3 0.00 0.00 0.00 64 1011.9
20260906034800 84 146 1.7 4.3 0.00 0.00 0.00 64 1011.9
20260906034700 84 148 1.7 6.1 0.00 0.00 0.00 64 1012.0
20260906034606 84 141 0.9 6.1 0.00 0.00 0.00 64 1010.2
20260906034402 84 130 2.6 6.1 0.00 0.00 0.00 64 1012.0
20260906034301 84 136 2.6 6.1 0.00 0.00 0.00 64 1012.1
20260906034200 84 134 2.6 6.1 0.00 0.00 0.00 64 1012.1
20260906034100 85 139 2.6 6.1 0.00 0.00 0.00 64 1012.0
20260906033901 85 132 2.6 6.1 0.00 0.00 0.00 64 1012.0
20260906033800 85 129 2.6 5.2 0.00 0.00 0.00 64 1012.0
20260906033600 85 110 1.7 4.3 0.00 0.00 0.00 64 1012.0
20260906033500 85 121 0.9 5.2 0.00 0.00 0.00 63 1011.9
20260906033400 85 146 1.7 5.2 0.00 0.00 0.00 63 1011.9
20260906033300 85 143 1.7 5.2 0.00 0.00 0.00 63 1011.9
20260906033100 85 144 2.6 7.8 0.00 0.00 0.00 63 1011.9
20260906033000 85 154 2.6 7.8 0.00 0.00 0.00 63 1011.9
20260906032900 85 158 2.6 7.8 0.00 0.00 0.00 63 1011.9
20260906032800 85 146 2.6 7.8 0.00 0.00 0.00 63 1011.9
20260906032702 85 157 2.6 7.8 0.00 0.00 0.00 63 1011.9
20260906032601 85 146 2.6 7.8 0.00 0.00 0.00 63 1012.0
20260906032401 85 153 3.5 7.8 0.00 0.00 0.00 63 1011.9
20260906032300 85 153 3.5 7.8 0.00 0.00 0.00 62 1011.9
20260906032100 85 157 2.6 6.1 0.00 0.00 0.00 62 1011.9
20260906032001 85 135 3.5 6.1 0.00 0.00 0.00 62 1011.9
20260906031900 85 152 3.5 6.1 0.00 0.00 0.00 62 1011.9
20260906031800 85 148 3.5 6.1 0.00 0.00 0.00 62 1011.9
20260906031600 85 133 1.7 7.0 0.00 0.00 0.00 62 1010.1
20260906031501 85 150 1.7 9.6 0.00 0.00 0.00 62 1012.0
20260906031400 85 149 1.7 9.6 0.00 0.00 0.00 62 1012.0
20260906031300 85 149 2.6 9.6 0.00 0.00 0.00 62 1012.0
20260906031200 85 134 3.5 9.6 0.00 0.00 0.00 62 1012.0
20260906031001 85 150 3.5 9.6 0.00 0.00 0.00 62 1012.0
20260906030900 85 142 4.3 9.6 0.00 0.00 0.00 61 1012.0
20260906030800 86 161 4.3 9.6 0.00 0.00 0.00 61 1012.0
20260906030700 86 129 4.3 9.6 0.00 0.00 0.00 61 1011.9
20260906030600 86 137 4.3 7.8 0.00 0.00 0.00 61 1011.9
20260906030501 86 120 3.5 7.0 0.00 0.00 0.00 61 1012.0
20260906030400 86 139 4.3 7.0 0.00 0.00 0.00 61 1012.0
20260906030301 86 130 4.3 7.0 0.00 0.00 0.00 61 1011.9
20260906030201 86 157 4.3 7.0 0.00 0.00 0.00 61 1012.0
20260906030101 86 134 3.5 7.0 0.00 0.00 0.00 61 1012.0
20260906030000 86 124 3.5 7.0 0.00 0.00 0.00 61 1012.0
20260906025901 86 131 3.5 7.0 0.00 0.00 0.00 60 1012.0
20260906025800 86 151 3.5 6.1 0.00 0.00 0.00 60 1012.0
20260906025700 86 134 2.6 6.1 0.00 0.00 0.00 60 1011.9
20260906025501 86 150 2.6 6.1 0.00 0.00 0.00 60 1011.9
20260906025359 86 134 2.6 6.1 0.00 0.00 0.00 60 1011.9
20260906025300 86 122 2.6 6.1 0.00 0.00 0.00 60 1011.9
20260906025201 86 146 2.6 9.6 0.00 0.00 0.00 60 1011.9
20260906025100 86 123 2.6 9.6 0.00 0.00 0.00 60 1011.9
20260906024901 86 134 2.6 9.6 0.00 0.00 0.00 60 1011.9
20260906024700 86 119 2.6 9.6 0.00 0.00 0.00 59 1011.9
20260906024611 86 135 2.6 9.6 0.00 0.00 0.00 59 1010.0
20260906024600 86 135 3.5 9.6 0.00 0.00 0.00 59 1011.9
20260906024500 86 127 4.3 9.6 0.00 0.00 0.00 59 1011.9
20260906024400 86 155 4.3 9.6 0.00 0.00 0.00 59 1011.8
20260906024300 86 133 3.5 7.0 0.00 0.00 0.00 59 1011.8
20260906024201 87 124 2.6 6.1 0.00 0.00 0.00 59 1011.8
20260906024100 87 140 2.6 6.1 0.00 0.00 0.00 59 1011.8
20260906024000 87 137 2.6 9.6 0.00 0.00 0.00 59 1011.7
20260906023700 87 125 2.6 9.6 0.00 0.00 0.00 58 1011.7
20260906023600 87 133 2.6 9.6 0.00 0.00 0.00 58 1011.7
20260906023500 87 136 2.6 9.6 0.00 0.00 0.00 58 1011.7
20260906023400 87 142 2.6 9.6 0.00 0.00 0.00 58 1011.7
20260906023300 87 146 2.6 9.6 0.00 0.00 0.00 58 1011.6
20260906023101 87 148 3.5 9.6 0.00 0.00 0.00 58 1011.5
20260906023001 87 132 3.5 9.6 0.00 0.00 0.00 57 1011.5
20260906022900 87 161 3.5 9.6 0.00 0.00 0.00 57 1011.5
20260906022800 87 146 3.5 9.6 0.00 0.00 0.00 57 1011.5
20260906022700 87 148 3.5 7.8 0.00 0.00 0.00 57 1011.4
20260906022600 87 126 3.5 7.8 0.00 0.00 0.00 57 1011.4
20260906022500 87 148 3.5 7.8 0.00 0.00 0.00 57 1011.4
20260906022400 87 138 3.5 7.8 0.00 0.00 0.00 57 1011.3
20260906022300 88 143 3.5 7.8 0.00 0.00 0.00 57 1011.4
20260906022000 88 150 3.5 7.8 0.00 0.00 0.00 56 1011.3
20260906021900 88 141 4.3 7.8 0.00 0.00 0.00 56 1011.3
20260906021801 88 131 4.3 9.6 0.00 0.00 0.00 56 1011.3
20260906021700 88 146 4.3 9.6 0.00 0.00 0.00 56 1011.3
20260906021603 88 155 3.5 10.4 0.00 0.00 0.00 56 1009.5
20260906021600 88 155 4.3 10.4 0.00 0.00 0.00 56 1011.3
20260906021500 88 155 4.3 10.4 0.00 0.00 0.00 56 1011.3
20260906021401 88 138 5.2 10.4 0.00 0.00 0.00 56 1011.3
20260906021300 88 174 5.2 10.4 0.00 0.00 0.00 56 1011.2
20260906021159 88 165 4.3 10.4 0.00 0.00 0.00 56 1011.2
20260906021101 88 129 4.3 10.4 0.00 0.00 0.00 56 1011.2
20260906021000 88 164 5.2 10.4 0.00 0.00 0.00 56 1011.2
20260906020900 88 148 4.3 10.4 0.00 0.00 0.00 56 1011.2
20260906020600 88 157 5.2 10.4 0.00 0.00 0.00 56 1011.1
20260906020500 88 128 5.2 10.4 0.00 0.00 0.00 56 1011.2
20260906020359 88 162 5.2 10.4 0.00 0.00 0.00 56 1011.2
20260906020301 88 140 5.2 10.4 0.00 0.00 0.00 56 1011.2
20260906020200 88 134 4.3 10.4 0.00 0.00 0.00 56 1011.1
20260906020100 88 142 3.5 8.7 0.00 0.00 0.00 56 1009.3
20260906020002 88 157 3.5 8.7 0.00 0.00 0.00 56 1009.3
20260906015801 88 136 4.3 8.7 0.00 0.00 0.00 56 1011.1
20260906015700 89 142 4.3 8.7 0.00 0.00 0.00 56 1011.0
20260906015600 89 144 4.3 8.7 0.00 0.00 0.00 56 1011.0
20260906015500 89 154 4.3 7.8 0.00 0.00 0.00 56 1011.0
20260906015300 89 111 4.3 7.8 0.00 0.00 0.00 56 1010.9
20260906015201 89 126 3.5 8.7 0.00 0.00 0.00 55 1010.9
20260906015100 89 140 3.5 8.7 0.00 0.00 0.00 55 1010.8
20260906015000 89 121 4.3 8.7 0.00 0.00 0.00 55 1010.9
20260906014902 89 144 4.3 9.6 0.00 0.00 0.00 55 1010.8
20260906014800 89 163 4.3 9.6 0.00 0.00 0.00 54 1010.9
20260906014604 89 138 5.2 13.0 0.00 0.00 0.00 54 1008.9
20260906014601 89 138 5.2 13.0 0.00 0.00 0.00 54 1010.8
20260906014501 89 136 5.2 13.0 0.00 0.00 0.00 54 1010.8
20260906014300 89 128 5.2 13.0 0.00 0.00 0.00 54 1010.9
20260906014201 89 126 6.1 13.0 0.00 0.00 0.00 54 1010.9
20260906014000 89 127 6.1 13.0 0.00 0.00 0.00 54 1010.9
20260906013800 89 145 3.5 7.8 0.00 0.00 0.00 52 1010.8
20260906013500 89 122 0.0 1.7 0.00 0.00 0.00 52 1010.6
20260906013400 89 122 0.0 1.7 0.00 0.00 0.00 52 1010.5
20260906013200 90 122 0.0 0.9 0.00 0.00 0.00 51 1010.5
20260906013100 90 122 0.0 1.7 0.00 0.00 0.00 51 1010.6
20260906013000 90 122 0.0 1.7 0.00 0.00 0.00 51 1010.5
20260906012900 90 122 0.0 1.7 0.00 0.00 0.00 51 1010.6
20260906012801 90 122 0.0 1.7 0.00 0.00 0.00 51 1010.5
20260906012659 90 122 0.0 1.7 0.00 0.00 0.00 51 1010.5
20260906012601 90 122 0.0 1.7 0.00 0.00 0.00 51 1010.5
20260906012500 90 122 0.0 1.7 0.00 0.00 0.00 51 1010.5
20260906012400 90 122 0.0 1.7 0.00 0.00 0.00 51 1010.5
20260906012201 90 122 0.0 1.7 0.00 0.00 0.00 51 1010.5
20260906012000 90 122 0.0 1.7 0.00 0.00 0.00 50 1010.4
20260906011900 90 122 0.0 1.7 0.00 0.00 0.00 50 1010.4
20260906011801 90 122 0.0 1.7 0.00 0.00 0.00 50 1010.4
20260906011700 90 122 0.0 1.7 0.00 0.00 0.00 50 1010.4
20260906011601 91 122 0.0 1.7 0.00 0.00 0.00 50 1010.4
20260906011500 91 122 0.0 1.7 0.00 0.00 0.00 49 1010.4
20260906011400 91 122 0.0 1.7 0.00 0.00 0.00 49 1010.3
20260906011300 91 122 0.0 1.7 0.00 0.00 0.00 49 1010.4
20260906011200 91 122 0.0 1.7 0.00 0.00 0.00 49 1010.4
20260906011100 91 122 0.0 1.7 0.00 0.00 0.00 49 1010.3
20260906010801 91 122 0.0 1.7 0.00 0.00 0.00 49 1010.3
20260906010700 91 122 0.0 1.7 0.00 0.00 0.00 49 1010.3
20260906010400 92 122 0.0 0.0 0.00 0.00 0.00 48 1010.3
20260906010301 92 122 0.0 0.0 0.00 0.00 0.00 48 1010.3
20260906010140 92 122 0.0 0.0 0.00 0.00 0.00 47 1008.4
20260906010002 92 122 0.0 0.0 0.00 0.00 0.00 47 1010.2
20260906005900 92 122 0.0 0.0 0.00 0.00 0.00 47 1010.2
20260906005800 92 122 0.0 0.0 0.00 0.00 0.00 47 1010.2
20260906005701 92 122 0.0 0.0 0.00 0.00 0.00 47 1010.2
20260906005601 92 122 0.0 0.0 0.00 0.00 0.00 47 1010.2
20260906005459 92 122 0.0 0.0 0.00 0.00 0.00 47 1010.2
20260906005300 92 122 0.0 0.9 0.00 0.00 0.00 47 1010.2
20260906005201 92 122 0.0 0.9 0.00 0.00 0.00 47 1010.2
20260906005100 93 122 0.0 1.7 0.00 0.00 0.00 47 1010.1
20260906004800 93 122 0.0 1.7 0.00 0.00 0.00 46 1010.1
20260906004700 93 122 0.0 1.7 0.00 0.00 0.00 46 1010.1
20260906004616 93 122 0.0 1.7 0.00 0.00 0.00 46 1008.3
20260906004500 93 122 0.0 1.7 0.00 0.00 0.00 46 1010.1
20260906004400 93 122 0.0 1.7 0.00 0.00 0.00 46 1010.1
20260906004300 93 122 0.0 1.7 0.00 0.00 0.00 46 1010.1
20260906004200 93 122 0.0 1.7 0.00 0.00 0.00 46 1010.0
20260906004101 93 122 0.0 1.7 0.00 0.00 0.00 46 1010.1
20260906004000 93 122 0.0 1.7 0.00 0.00 0.00 46 1010.1
20260906003900 94 122 0.0 1.7 0.00 0.00 0.00 45 1010.1
20260906003800 94 122 0.0 1.7 0.00 0.00 0.00 45 1010.0
20260906003701 94 122 0.0 1.7 0.00 0.00 0.00 45 1010.1
20260906003559 94 122 0.0 1.7 0.00 0.00 0.00 45 1010.1
20260906003500 94 122 0.0 1.7 0.00 0.00 0.00 45 1010.1
20260906003400 94 122 0.0 1.7 0.00 0.00 0.00 45 1010.1
20260906003300 94 122 0.0 1.7 0.00 0.00 0.00 45 1010.1
20260906003201 94 122 0.0 1.7 0.00 0.00 0.00 45 1010.1
20260906003101 94 122 0.0 1.7 0.00 0.00 0.00 44 1008.3
20260906003002 94 122 0.0 1.7 0.00 0.00 0.00 44 1008.3
20260906002901 94 122 0.0 1.7 0.00 0.00 0.00 44 1010.1
20260906002801 95 122 0.0 1.7 0.00 0.00 0.00 44 1010.1
20260906002700 95 122 0.9 1.7 0.00 0.00 0.00 44 1010.1
20260906002600 95 122 0.9 1.7 0.00 0.00 0.00 44 1010.1
20260906002500 95 122 0.0 1.7 0.00 0.00 0.00 44 1010.2
20260906002400 95 122 0.0 1.7 0.00 0.00 0.00 44 1010.1
20260906002300 95 121 0.0 0.9 0.00 0.00 0.00 44 1010.2
20260906002202 95 117 0.0 0.9 0.00 0.00 0.00 44 1010.2
20260906002100 95 117 0.0 1.7 0.00 0.00 0.00 44 1010.1
20260906002000 95 117 0.0 1.7 0.00 0.00 0.00 44 1010.1
20260906001901 95 117 0.0 1.7 0.00 0.00 0.00 44 1010.1
20260906001700 95 117 0.0 1.7 0.00 0.00 0.00 43 1010.1
20260906001605 95 117 0.0 1.7 0.00 0.00 0.00 43 1008.2
20260906001600 95 117 0.0 1.7 0.00 0.00 0.00 43 1010.0
20260906001501 96 117 0.9 1.7 0.00 0.00 0.00 43 1010.1
20260906001301 96 117 0.9 2.6 0.00 0.00 0.00 43 1010.0
20260906001101 96 117 0.9 2.6 0.00 0.00 0.00 43 1010.1
20260906001000 96 117 0.9 2.6 0.00 0.00 0.00 42 1010.1
20260906000900 96 117 0.9 2.6 0.00 0.00 0.00 42 1010.0
20260906000800 96 114 0.9 2.6 0.00 0.00 0.00 43 1010.0
20260906000701 96 114 0.9 2.6 0.00 0.00 0.00 42 1010.0
20260906000459 97 114 0.9 2.6 0.00 0.00 0.00 42 1010.0
20260906000400 97 114 1.7 2.6 0.00 0.00 0.00 42 1010.0
20260906000300 97 111 1.7 5.2 0.00 0.00 0.00 42 1010.0
20260906000200 97 107 1.7 5.2 0.00 0.00 0.00 42 1010.0
20260906000100 97 109 0.0 5.2 0.00 0.00 0.00 43 1008.1
20260905235859 97 94 0.9 7.0 0.00 0.00 0.00 43 1010.0
20260905235659 97 107 2.6 7.0 0.00 0.00 0.00 42 1010.0
20260905235559 97 109 2.6 7.0 0.00 0.00 0.00 42 1009.9
20260905235459 97 114 2.6 7.0 0.00 0.00 0.00 42 1010.0
20260905235259 97 126 3.5 7.0 0.00 0.00 0.00 41 1010.0
20260905235159 97 120 3.5 7.0 0.00 0.00 0.00 41 1009.9
20260905235059 97 117 3.5 7.0 0.00 0.00 0.00 41 1009.9
20260905235000 97 118 2.6 7.0 0.00 0.00 0.00 41 1009.9
20260905234759 98 109 3.5 7.0 0.00 0.00 0.00 41 1009.9
20260905234659 98 132 4.3 7.8 0.00 0.00 0.00 40 1009.9
20260905234600 98 120 3.5 7.8 0.00 0.00 0.00 41 1008.1
20260905234559 98 120 3.5 7.8 0.00 0.00 0.00 41 1009.9
20260905234300 98 118 2.6 7.8 0.00 0.00 0.00 40 1009.8
20260905234159 98 113 3.5 7.8 0.00 0.00 0.00 41 1009.8
20260905234059 98 105 3.5 7.8 0.00 0.00 0.00 40 1009.8
20260905233959 98 104 3.5 7.8 0.00 0.00 0.00 40 1009.8
20260905233859 98 120 2.6 6.1 0.00 0.00 0.00 40 1009.8
20260905233759 98 144 1.7 4.3 0.00 0.00 0.00 40 1009.8
20260905233659 98 123 1.7 4.3 0.00 0.00 0.00 40 1009.8
20260905233459 98 109 1.7 4.3 0.00 0.00 0.00 40 1009.8
20260905233359 98 103 1.7 4.3 0.00 0.00 0.00 41 1009.8
20260905233159 99 130 1.7 4.3 0.00 0.00 0.00 40 1009.8
20260905233100 99 123 1.7 4.3 0.00 0.00 0.00 40 1007.9
20260905232959 99 131 1.7 4.3 0.00 0.00 0.00 40 1009.8
20260905232859 99 134 1.7 4.3 0.00 0.00 0.00 40 1009.8
20260905232759 99 93 1.7 3.5 0.00 0.00 0.00 41 1009.8
20260905232659 99 105 0.9 3.5 0.00 0.00 0.00 41 1009.8
20260905232500 99 94 0.9 2.6 0.00 0.00 0.00 41 1009.8
20260905232400 99 111 0.9 5.2 0.00 0.00 0.00 39 1009.8
20260905232259 99 109 0.0 5.2 0.00 0.00 0.00 40 1009.8
20260905232200 98 109 0.9 5.2 0.00 0.00 0.00 40 1009.8
20260905231959 98 108 1.7 5.2 0.00 0.00 0.00 40 1009.8
20260905231859 98 109 1.7 5.2 0.00 0.00 0.00 40 1009.8
20260905231801 98 128 1.7 6.1 0.00 0.00 0.00 40 1009.8
20260905231700 98 127 1.7 6.1 0.00 0.00 0.00 39 1009.9
20260905231602 99 133 2.6 6.1 0.00 0.00 0.00 39 1008.0
20260905231558 99 133 2.6 6.1 0.00 0.00 0.00 39 1009.8
20260905231459 99 128 2.6 7.8 0.00 0.00 0.00 39 1009.9
20260905231359 99 129 2.6 7.8 0.00 0.00 0.00 40 1009.9
20260905231259 99 115 2.6 7.8 0.00 0.00 0.00 40 1009.8
20260905231159 99 113 2.6 7.8 0.00 0.00 0.00 40 1009.9
20260905231059 99 140 3.5 7.8 0.00 0.00 0.00 39 1009.9
20260905230959 99 123 4.3 7.8 0.00 0.00 0.00 39 1009.9
20260905230859 99 138 4.3 7.8 0.00 0.00 0.00 39 1009.8
20260905230759 99 123 4.3 7.8 0.00 0.00 0.00 39 1009.9
20260905230559 99 140 4.3 7.8 0.00 0.00 0.00 39 1009.9
20260905230459 99 117 4.3 7.8 0.00 0.00 0.00 39 1009.9
20260905230359 100 133 3.5 7.0 0.00 0.00 0.00 38 1009.9
20260905230159 100 130 2.6 7.0 0.00 0.00 0.00 38 1009.9
20260905230059 100 113 2.6 7.0 0.00 0.00 0.00 38 1009.9
20260905225859 100 115 3.5 7.8 0.00 0.00 0.00 38 1009.9
20260905225800 100 134 2.6 7.8 0.00 0.00 0.00 38 1009.9
20260905225559 101 140 2.6 7.8 0.00 0.00 0.00 38 1009.9
20260905225459 101 148 2.6 7.8 0.00 0.00 0.00 37 1009.9
20260905225359 101 130 3.5 7.8 0.00 0.00 0.00 37 1009.9
20260905225259 101 148 4.3 7.8 0.00 0.00 0.00 38 1009.9
20260905225159 101 69 4.3 8.7 0.00 0.00 0.00 37 1009.9
20260905225059 101 94 4.3 8.7 0.00 0.00 0.00 37 1009.8
20260905225000 101 100 3.5 8.7 0.00 0.00 0.00 38 1009.8
20260905224859 101 103 1.7 8.7 0.00 0.00 0.00 38 1009.9
20260905224559 101 93 0.9 5.2 0.00 0.00 0.00 38 1008.0
20260905224500 101 93 0.9 5.2 0.00 0.00 0.00 38 1009.9
20260905224403 101 93 0.9 5.2 0.00 0.00 0.00 38 1009.9
20260905224304 101 129 0.9 4.3 0.00 0.00 0.00 38 1009.8
20260905224203 101 83 0.0 4.3 0.00 0.00 0.00 38 1009.8
20260905224104 101 82 0.0 4.3 0.00 0.00 0.00 37 1009.8
20260905224003 101 82 0.9 6.1 0.00 0.00 0.00 37 1009.8
20260905223904 101 83 0.9 6.1 0.00 0.00 0.00 38 1009.8
20260905223803 100 108 1.7 6.1 0.00 0.00 0.00 39 1009.8
20260905223702 100 82 1.7 6.1 0.00 0.00 0.00 39 1009.8
20260905223604 100 98 1.7 7.8 0.00 0.00 0.00 38 1009.8
20260905223502 100 95 1.7 7.8 0.00 0.00 0.00 38 1009.8
20260905223403 100 113 2.6 7.8 0.00 0.00 0.00 38 1009.8
20260905223303 100 106 2.6 7.8 0.00 0.00 0.00 39 1009.9
20260905223203 100 107 2.6 7.8 0.00 0.00 0.00 38 1009.8
20260905223103 100 99 2.6 7.8 0.00 0.00 0.00 38 1009.8
20260905223006 100 158 2.6 8.7 0.00 0.00 0.00 39 1007.9
20260905223004 100 158 3.5 8.7 0.00 0.00 0.00 39 1009.8
20260905222903 100 119 3.5 8.7 0.00 0.00 0.00 38 1009.8
20260905222804 100 132 3.5 10.4 0.00 0.00 0.00 38 1009.8
20260905222704 100 105 4.3 10.4 0.00 0.00 0.00 38 1009.7
20260905222602 100 126 4.3 10.4 0.00 0.00 0.00 39 1009.7
20260905222503 100 97 4.3 10.4 0.00 0.00 0.00 39 1009.8
20260905222404 100 152 3.5 10.4 0.00 0.00 0.00 38 1009.7
20260905222306 100 177 3.5 10.4 0.00 0.00 0.00 38 1009.7
20260905222203 100 144 4.3 10.4 0.00 0.00 0.00 38 1009.8
20260905222104 100 119 4.3 10.4 0.00 0.00 0.00 38 1009.7
20260905222004 100 98 5.2 10.4 0.00 0.00 0.00 38 1009.7
20260905221903 100 137 4.3 10.4 0.00 0.00 0.00 39 1009.8
20260905221804 100 109 2.6 10.4 0.00 0.00 0.00 39 1009.8
20260905221705 100 182 1.7 7.8 0.00 0.00 0.00 38 1009.8
20260905221504 100 155 2.6 7.8 0.00 0.00 0.00 39 1009.8
20260905221404 100 138 2.6 7.8 0.00 0.00 0.00 39 1009.9